[[{"header":{"parameterUnit":"m.s-1","parameterCategory":1,"la1":30.6,"la2":29.2853,"lo1":-89.7004,"lo2":-87.6739,"dx":0.0162,"dy":0.0183,"nx":112,"ny":82,"refTime":"2022-12-15T18:00:00:Z","depth":0,"parameterNumber":2,"parameterNumberName":"U-component_of_WINDS"},"data":[0.0,0.0,0.0,0.0,0.0,0.0,0.0,0.0,0.0,0.0,0.0,0.0,0.0,0.0,0.0,0.0,0.0,0.0,0.0,0.0,0.0,0.0,0.0,0.0,0.0,0.0,0.0,0.0,0.0,0.0,0.0,0.0,0.0,0.0,0.0,0.0,0.0,0.0,0.0,0.0,0.0,0.0,0.0,0.0,0.0,0.0,0.0,0.0,0.0,0.0,0.0,0.0,0.0,0.0,0.0,0.0,0.0,0.0,0.0,0.0,0.0,0.0,0.0,0.0,0.0,0.0,0.0,0.0,0.0,0.0,0.0,0.0,0.0,0.0,0.0,0.0,0.0,0.0,0.0,0.0,0.0,0.0,0.0,0.0,0.0,0.0,0.0,0.0,0.0,0.0,4.1893,4.3662,4.6394,4.7817,4.7163,4.7086,4.497,4.0008,0.0,0.0,0.0,0.0,0.0,0.0,0.0,0.0,0.0,0.0,0.0,0.0,0.0,0.0,0.0,0.0,0.0,0.0,0.0,0.0,0.0,0.0,0.0,0.0,0.0,0.0,0.0,0.0,0.0,0.0,0.0,0.0,0.0,0.0,0.0,0.0,0.0,0.0,0.0,0.0,0.0,0.0,0.0,0.0,0.0,0.0,0.0,0.0,0.0,0.0,0.0,0.0,0.0,0.0,0.0,0.0,0.0,0.0,0.0,0.0,0.0,0.0,0.0,0.0,0.0,0.0,0.0,0.0,0.0,0.0,0.0,0.0,0.0,0.0,0.0,0.0,0.0,0.0,0.0,0.0,0.0,0.0,0.0,0.0,0.0,0.0,0.0,0.0,0.0,0.0,0.0,0.0,0.0,0.0,0.0,0.0,0.0,0.0,0.0,0.0,0.0,0.0,0.0,0.0,4.0816,4.6701,4.7817,4.8048,4.7932,4.7932,4.6047,4.17,0.0,0.0,0.0,0.0,0.0,0.0,0.0,0.0,0.0,0.0,0.0,0.0,0.0,0.0,0.0,0.0,0.0,0.0,0.0,0.0,0.0,0.0,0.0,0.0,0.0,0.0,0.0,0.0,0.0,0.0,0.0,0.0,0.0,0.0,0.0,0.0,0.0,0.0,0.0,0.0,0.0,0.0,0.0,0.0,0.0,0.0,0.0,0.0,0.0,0.0,0.0,0.0,0.0,0.0,0.0,0.0,0.0,0.0,0.0,0.0,0.0,0.0,0.0,0.0,0.0,0.0,0.0,0.0,0.0,0.0,0.0,0.0,0.0,0.0,0.0,0.0,0.0,0.0,0.0,0.0,0.0,0.0,0.0,0.0,0.0,0.0,0.0,0.0,0.0,0.0,0.0,0.0,0.0,0.0,0.0,0.0,0.0,0.0,0.0,0.0,0.0,0.0,0.0,4.1123,4.4008,4.8971,4.951,4.9317,4.8856,4.8817,4.6817,4.2124,3.8238,0.0,0.0,0.0,0.0,0.0,0.0,0.0,0.0,0.0,0.0,0.0,0.0,0.0,0.0,0.0,0.0,0.0,0.0,0.0,0.0,0.0,0.0,0.0,0.0,0.0,0.0,0.0,0.0,0.0,0.0,0.0,0.0,0.0,0.0,0.0,0.0,0.0,0.0,0.0,0.0,0.0,0.0,0.0,0.0,0.0,0.0,0.0,0.0,0.0,0.0,0.0,0.0,0.0,0.0,0.0,0.0,0.0,0.0,0.0,0.0,0.0,0.0,0.0,0.0,0.0,0.0,0.0,0.0,0.0,0.0,0.0,0.0,0.0,0.0,0.0,0.0,0.0,0.0,0.0,0.0,0.0,0.0,0.0,0.0,0.0,0.0,0.0,0.0,0.0,0.0,0.0,0.0,0.0,0.0,0.0,0.0,0.0,0.0,0.0,0.0,0.0,0.0,4.5817,4.8163,5.0971,5.1279,5.0933,5.0048,5.001,4.774,4.2431,3.8892,0.0,0.0,0.0,0.0,0.0,0.0,0.0,0.0,0.0,0.0,0.0,0.0,0.0,0.0,0.0,0.0,0.0,0.0,0.0,0.0,0.0,0.0,0.0,0.0,0.0,0.0,0.0,0.0,0.0,0.0,0.0,0.0,0.0,0.0,0.0,0.0,0.0,0.0,0.0,0.0,0.0,0.0,0.0,0.0,0.0,0.0,0.0,0.0,0.0,0.0,0.0,0.0,0.0,0.0,0.0,0.0,0.0,0.0,0.0,0.0,0.0,0.0,0.0,0.0,0.0,0.0,0.0,0.0,0.0,0.0,0.0,0.0,0.0,0.0,0.0,0.0,0.0,0.0,0.0,0.0,0.0,0.0,0.0,0.0,0.0,0.0,0.0,0.0,0.0,0.0,0.0,0.0,0.0,0.0,0.0,0.0,0.0,0.0,0.0,0.0,0.0,0.0,4.8048,5.1856,5.2895,5.301,5.2664,5.1818,5.1741,4.924,4.3393,3.9815,0.0,0.0,0.0,0.0,0.0,0.0,0.0,0.0,0.0,0.0,0.0,0.0,0.0,0.0,0.0,0.0,0.0,0.0,0.0,0.0,0.0,0.0,0.0,0.0,0.0,0.0,0.0,0.0,0.0,0.0,0.0,0.0,0.0,0.0,0.0,0.0,0.0,0.0,0.0,0.0,0.0,0.0,0.0,0.0,0.0,0.0,0.0,0.0,0.0,0.0,0.0,0.0,0.0,0.0,0.0,0.0,0.0,0.0,0.0,0.0,0.0,0.0,0.0,0.0,0.0,0.0,0.0,0.0,0.0,0.0,0.0,0.0,0.0,0.0,0.0,0.0,0.0,0.0,0.0,0.0,0.0,0.0,0.0,0.0,0.0,0.0,0.0,0.0,0.0,0.0,0.0,0.0,0.0,0.0,0.0,0.0,0.0,0.0,0.0,0.0,0.0,0.0,4.7355,5.1087,5.301,5.3203,5.3087,5.2741,5.2702,5.0202,4.4201,0.0,0.0,0.0,0.0,0.0,0.0,0.0,0.0,0.0,0.0,0.0,0.0,0.0,0.0,0.0,0.0,0.0,0.0,0.0,0.0,0.0,0.0,0.0,0.0,0.0,0.0,0.0,0.0,0.0,0.0,0.0,0.0,0.0,0.0,0.0,0.0,0.0,0.0,0.0,0.0,0.0,0.0,0.0,0.0,0.0,0.0,0.0,0.0,0.0,0.0,0.0,0.0,0.0,0.0,0.0,0.0,0.0,0.0,0.0,0.0,0.0,0.0,0.0,0.0,0.0,0.0,0.0,0.0,0.0,0.0,0.0,0.0,0.0,0.0,0.0,0.0,0.0,0.0,0.0,0.0,0.0,0.0,0.0,0.0,0.0,0.0,0.0,0.0,0.0,0.0,0.0,0.0,0.0,0.0,0.0,0.0,0.0,0.0,0.0,0.0,0.0,0.0,4.4047,4.8625,5.2279,5.4587,5.4818,5.4587,5.4049,5.3972,5.1202,4.4701,0.0,0.0,0.0,0.0,0.0,0.0,0.0,0.0,0.0,0.0,0.0,0.0,0.0,0.0,0.0,0.0,0.0,0.0,0.0,0.0,0.0,0.0,0.0,0.0,0.0,0.0,0.0,0.0,0.0,0.0,0.0,0.0,0.0,0.0,0.0,0.0,0.0,0.0,0.0,0.0,0.0,0.0,0.0,0.0,0.0,0.0,0.0,0.0,0.0,0.0,0.0,0.0,0.0,0.0,0.0,0.0,0.0,0.0,0.0,0.0,0.0,0.0,0.0,0.0,0.0,0.0,0.0,0.0,0.0,0.0,0.0,0.0,0.0,0.0,0.0,0.0,0.0,0.0,0.0,0.0,0.0,0.0,0.0,0.0,0.0,0.0,0.0,0.0,0.0,0.0,0.0,0.0,0.0,0.0,0.0,0.0,0.0,0.0,0.0,0.0,0.0,0.0,4.7471,5.2587,5.6395,5.8127,5.8319,5.7588,5.5895,5.5742,5.2472,0.0,0.0,0.0,0.0,0.0,0.0,0.0,0.0,0.0,0.0,0.0,0.0,0.0,0.0,0.0,0.0,0.0,0.0,0.0,0.0,0.0,0.0,0.0,0.0,0.0,0.0,0.0,0.0,0.0,0.0,0.0,0.0,0.0,0.0,0.0,0.0,0.0,0.0,0.0,0.0,0.0,0.0,0.0,0.0,0.0,0.0,0.0,0.0,0.0,0.0,0.0,0.0,0.0,0.0,0.0,0.0,0.0,0.0,0.0,0.0,0.0,0.0,0.0,0.0,0.0,0.0,0.0,0.0,0.0,0.0,0.0,0.0,0.0,0.0,0.0,0.0,0.0,0.0,0.0,0.0,0.0,0.0,0.0,0.0,0.0,0.0,0.0,0.0,0.0,0.0,0.0,0.0,0.0,0.0,0.0,0.0,0.0,0.0,0.0,0.0,0.0,0.0,0.0,4.7586,5.3626,5.7742,5.8242,5.8319,5.8088,5.7588,5.755,5.428,4.6624,0.0,0.0,0.0,0.0,0.0,0.0,0.0,0.0,0.0,0.0,0.0,0.0,0.0,0.0,0.0,0.0,0.0,0.0,0.0,0.0,0.0,0.0,0.0,0.0,0.0,0.0,0.0,0.0,0.0,0.0,0.0,0.0,0.0,0.0,0.0,0.0,0.0,0.0,0.0,0.0,0.0,0.0,0.0,0.0,0.0,0.0,0.0,0.0,0.0,0.0,0.0,0.0,0.0,0.0,0.0,0.0,0.0,0.0,0.0,0.0,0.0,0.0,0.0,0.0,0.0,0.0,0.0,0.0,0.0,0.0,0.0,0.0,0.0,0.0,0.0,0.0,0.0,0.0,0.0,0.0,0.0,0.0,0.0,0.0,0.0,0.0,0.0,0.0,0.0,0.0,0.0,0.0,0.0,0.0,0.0,0.0,0.0,0.0,0.0,0.0,0.0,0.0,4.8663,5.478,5.8896,5.9242,5.9319,5.9165,5.8819,5.8781,5.6088,4.9817,0.0,0.0,0.0,0.0,0.0,0.0,0.0,0.0,0.0,0.0,0.0,0.0,0.0,0.0,0.0,0.0,0.0,0.0,0.0,0.0,0.0,0.0,0.0,0.0,0.0,0.0,0.0,0.0,0.0,0.0,0.0,0.0,0.0,0.0,0.0,0.0,0.0,0.0,0.0,0.0,0.0,0.0,0.0,0.0,0.0,0.0,0.0,0.0,0.0,0.0,0.0,0.0,0.0,0.0,0.0,0.0,0.0,0.0,0.0,0.0,0.0,0.0,0.0,0.0,0.0,0.0,0.0,0.0,0.0,0.0,0.0,0.0,0.0,0.0,0.0,0.0,0.0,0.0,0.0,0.0,0.0,0.0,0.0,0.0,0.0,0.0,0.0,0.0,0.0,0.0,0.0,0.0,0.0,0.0,0.0,0.0,0.0,0.0,0.0,0.0,0.0,0.0,5.0279,5.5972,5.9935,6.0704,6.0781,6.0473,5.9704,5.9627,5.7819,5.3587,0.0,0.0,0.0,0.0,0.0,0.0,0.0,0.0,0.0,0.0,0.0,0.0,0.0,0.0,0.0,0.0,0.0,0.0,0.0,0.0,0.0,0.0,0.0,0.0,0.0,0.0,0.0,0.0,0.0,0.0,0.0,0.0,0.0,0.0,0.0,0.0,0.0,0.0,0.0,0.0,0.0,0.0,0.0,0.0,0.0,0.0,0.0,0.0,0.0,0.0,0.0,0.0,0.0,0.0,0.0,0.0,0.0,0.0,0.0,0.0,3.6315,3.2968,0.0,0.0,0.0,0.0,0.0,0.0,0.0,0.0,0.0,0.0,0.0,0.0,0.0,0.0,0.0,0.0,0.0,0.0,0.0,0.0,0.0,0.0,0.0,0.0,0.0,0.0,0.0,0.0,0.0,0.0,0.0,0.0,0.0,0.0,0.0,0.0,0.0,0.0,0.0,0.0,5.1202,5.6857,6.0589,6.0781,6.0781,6.0704,6.055,6.0512,5.8704,5.4472,5.2549,0.0,0.0,0.0,0.0,0.0,0.0,0.0,0.0,0.0,0.0,0.0,0.0,0.0,0.0,0.0,0.0,0.0,0.0,0.0,0.0,0.0,0.0,0.0,0.0,0.0,0.0,0.0,0.0,0.0,0.0,0.0,0.0,0.0,0.0,0.0,0.0,0.0,0.0,0.0,0.0,0.0,0.0,0.0,0.0,0.0,0.0,0.0,0.0,0.0,0.0,0.0,0.0,0.0,0.0,0.0,0.0,0.0,0.0,0.0,3.9969,3.7546,0.0,0.0,0.0,0.0,0.0,0.0,0.0,0.0,0.0,0.0,0.0,0.0,0.0,0.0,0.0,0.0,0.0,0.0,0.0,0.0,0.0,0.0,0.0,0.0,0.0,0.0,0.0,0.0,0.0,0.0,0.0,0.0,0.0,0.0,0.0,0.0,0.0,0.0,0.0,0.0,5.151,5.7126,6.0781,6.0781,6.0781,6.0781,6.0781,6.0781,5.9858,5.7665,5.5203,0.0,0.0,0.0,0.0,0.0,0.0,0.0,0.0,0.0,0.0,0.0,0.0,0.0,0.0,0.0,0.0,0.0,0.0,0.0,0.0,0.0,0.0,0.0,0.0,0.0,0.0,0.0,0.0,0.0,0.0,0.0,0.0,0.0,0.0,0.0,0.0,0.0,0.0,0.0,0.0,0.0,0.0,0.0,0.0,0.0,0.0,0.0,0.0,0.0,0.0,0.0,0.0,0.0,4.2508,4.3547,4.5124,4.5778,4.7317,4.9163,4.4278,4.3316,4.4816,3.9777,0.0,0.0,0.0,0.0,0.0,0.0,0.0,0.0,0.0,0.0,0.0,0.0,0.0,0.0,0.0,0.0,0.0,0.0,0.0,0.0,0.0,0.0,4.6509,4.6509,4.9317,5.0471,4.4816,0.0,0.0,0.0,0.0,0.0,0.0,0.0,0.0,0.0,0.0,0.0,5.2664,5.7819,6.1243,6.1243,6.1243,6.1243,6.1243,6.1243,6.1243,6.1243,5.7973,5.5395,0.0,0.0,0.0,0.0,0.0,0.0,0.0,0.0,0.0,0.0,0.0,0.0,0.0,0.0,0.0,0.0,0.0,0.0,0.0,0.0,0.0,0.0,0.0,0.0,0.0,0.0,0.0,0.0,0.0,0.0,0.0,0.0,3.4737,3.4968,0.0,0.0,0.0,0.0,0.0,0.0,0.0,0.0,0.0,0.0,0.0,0.0,0.0,4.1662,4.3431,4.5663,4.7278,4.824,5.0471,5.2049,5.301,5.3126,5.3703,5.4664,5.3895,0.0,4.8625,4.7086,0.0,0.0,0.0,0.0,0.0,0.0,0.0,0.0,0.0,0.0,0.0,0.0,0.0,0.0,0.0,0.0,0.0,0.0,0.0,0.0,0.0,0.0,5.5318,5.5318,5.6319,5.7049,5.6165,5.0741,4.547,4.3508,4.3739,4.3162,0.0,0.0,0.0,0.0,0.0,0.0,5.6934,6.0704,6.2974,6.2974,6.2974,6.2974,6.2974,6.2974,6.2974,6.2974,6.2474,6.0435,5.6665,5.4664,0.0,0.0,0.0,0.0,0.0,0.0,0.0,0.0,0.0,0.0,0.0,0.0,0.0,0.0,0.0,0.0,0.0,0.0,0.0,0.0,0.0,0.0,0.0,0.0,0.0,0.0,0.0,0.0,0.0,3.2929,3.4737,3.6699,3.4661,3.2737,0.0,0.0,0.0,0.0,0.0,0.0,0.0,0.0,0.0,4.4701,4.6086,4.7855,5.001,5.1587,5.2818,5.3703,5.478,5.578,5.6626,5.6626,5.6819,5.7165,5.7165,5.6126,5.4203,5.1395,4.8471,4.5565,0.0,0.0,0.0,0.0,4.2898,4.2996,4.6453,4.7317,4.6817,4.6394,0.0,0.0,0.0,0.0,0.0,0.0,0.0,4.8414,5.139,5.4199,5.6511,5.7511,5.8357,5.8973,5.8973,5.6742,5.3626,5.001,4.9202,4.7778,4.3393,4.5278,0.0,0.0,0.0,5.6357,5.8665,6.1512,6.332,6.332,6.332,6.332,6.332,6.332,6.332,6.332,6.332,6.2474,6.0627,5.805,5.4259,0.0,0.0,0.0,0.0,0.0,0.0,0.0,0.0,0.0,0.0,0.0,0.0,0.0,0.0,0.0,0.0,0.0,0.0,0.0,0.0,0.0,0.0,0.0,0.0,0.0,0.0,0.0,0.0,3.5276,3.6776,3.9315,3.793,3.6199,0.0,0.0,0.0,0.0,0.0,0.0,4.4932,4.624,4.7971,5.0317,5.1856,5.3549,5.5434,5.6049,5.6703,5.7319,5.7319,5.7819,5.8665,5.8665,5.8781,5.8973,5.905,5.905,5.8704,5.5049,5.2797,5.1528,4.9625,4.8107,4.7204,4.9087,4.9394,4.9394,5.3182,5.4087,5.3433,5.2856,5.1644,4.9971,4.7626,0.0,0.0,0.0,0.0,5.1951,5.4556,5.6099,5.7396,5.8896,5.9742,6.0204,6.0435,6.0819,6.0012,5.6203,5.4934,5.3164,4.8933,5.0818,0.0,5.151,5.5857,5.9819,6.1243,6.3281,6.4589,6.4589,6.4589,6.4589,6.4589,6.4589,6.4589,6.4589,6.4589,6.4397,6.3974,6.1589,5.8773,5.5608,0.0,0.0,0.0,0.0,0.0,0.0,0.0,0.0,0.0,0.0,0.0,0.0,0.0,0.0,0.0,0.0,0.0,0.0,0.0,0.0,0.0,0.0,0.0,0.0,0.0,0.0,0.0,0.0,0.0,4.397,4.3855,0.0,0.0,0.0,0.0,4.3778,4.5586,4.7663,5.0164,5.2664,5.478,5.6511,5.7434,5.7973,5.8127,5.8165,5.8204,5.8242,5.8242,5.8742,5.9727,5.9727,6.015,6.0858,6.1074,6.1035,6.0704,5.8781,5.6582,5.438,5.4265,5.2778,5.104,5.3414,5.4265,5.4594,5.7143,5.8011,5.7973,5.7934,5.573,5.3222,5.3881,5.2384,0.0,0.0,5.6022,5.7203,5.9781,6.0473,6.0781,6.1666,6.1935,6.2166,6.2935,6.2551,6.1935,6.1704,6.1627,6.0973,5.905,0.0,5.9319,6.005,6.1166,6.3051,6.6282,6.7552,6.8129,6.8129,6.8129,6.8129,6.8129,6.8129,6.8129,6.8129,6.8129,6.7436,6.582,6.559,6.3166,5.8219,5.6575,0.0,0.0,0.0,0.0,0.0,0.0,0.0,0.0,0.0,0.0,0.0,0.0,0.0,0.0,0.0,0.0,0.0,0.0,0.0,0.0,0.0,0.0,0.0,0.0,0.0,0.0,0.0,0.0,4.5047,4.5624,0.0,4.4778,4.6432,4.7971,4.9125,5.1818,5.4049,5.5511,5.6434,5.7203,5.7819,5.8742,5.9265,5.9265,5.9919,6.0204,6.0242,6.0804,6.1251,6.1597,6.2159,6.2509,6.2804,6.2892,6.2856,6.2742,6.2121,6.0692,5.8889,5.8889,5.8366,5.7728,5.8581,5.8889,5.9065,5.9935,6.0204,6.0204,6.0204,5.9412,5.8619,5.9488,5.9104,5.8781,6.0512,6.1112,6.1458,6.2382,6.2512,6.2474,6.282,6.2858,6.2935,6.3243,6.3512,6.3858,6.4436,6.3205,6.1704,6.055,6.2166,6.3358,6.2551,6.4551,6.659,6.7782,6.8205,6.8398,6.8398,6.8398,6.8398,6.8398,6.8398,6.8398,6.8398,6.8398,6.8129,6.7552,6.7513,6.6167,6.3243,6.2757,5.8175,0.0,0.0,0.0,0.0,0.0,0.0,0.0,0.0,0.0,0.0,0.0,0.0,0.0,0.0,0.0,0.0,0.0,0.0,0.0,0.0,0.0,0.0,0.0,0.0,0.0,4.3085,4.5817,4.6355,4.824,4.9125,4.824,5.0971,5.3164,5.401,5.6395,5.8127,5.8781,5.905,5.9358,5.9727,6.0381,6.0877,6.1138,6.1795,6.2143,6.2143,6.2723,6.3029,6.3145,6.3649,6.391,6.3912,6.3936,6.4093,6.4342,6.4066,6.3658,6.3129,6.2414,6.2143,6.2143,6.2143,6.2143,6.2143,6.2143,6.2143,6.2143,6.2143,6.2143,6.2259,6.2839,6.3013,6.3129,6.3632,6.3942,6.4113,6.4108,6.4191,6.432,6.4691,6.4691,6.4666,6.5051,6.5513,6.6051,6.6628,6.5128,6.3705,6.3397,6.5243,6.6359,6.5205,6.7436,6.9244,6.9244,6.9783,7.0129,7.0129,7.0129,7.0129,7.0129,6.9321,6.9206,7.009,6.9321,6.8975,6.9244,6.8448,6.7256,6.5564,6.518,6.1018,5.2885,0.0,0.0,0.0,0.0,0.0,0.0,0.0,0.0,0.0,0.0,0.0,0.0,0.0,0.0,0.0,0.0,0.0,0.0,0.0,0.0,0.0,0.0,0.0,4.3508,4.6124,4.8279,4.8317,5.201,5.4241,5.3433,5.5626,5.7434,5.828,5.9088,5.9627,5.9881,6.0612,6.152,6.2606,6.266,6.3033,6.3819,6.3842,6.3854,6.3854,6.3932,6.4031,6.4254,6.4254,6.427,6.4258,6.4414,6.487,6.5473,6.476,6.545,6.6786,6.4671,6.3893,6.3893,6.3893,6.3893,6.3893,6.3893,6.3893,6.3893,6.3893,6.3893,6.3893,6.3932,6.3932,6.3932,6.3971,6.4594,6.522,6.523,6.5702,6.6448,6.7499,6.7474,6.7487,6.8501,6.8655,6.8552,6.8552,6.7859,6.7552,6.8359,6.8475,6.8513,6.8552,6.9937,0.0,7.1014,7.2476,7.3514,7.3437,7.3437,7.3437,7.3437,7.1168,7.0821,7.336,7.1206,7.0167,7.0937,6.874,6.6704,6.5039,6.3553,6.1657,5.9266,0.0,0.0,0.0,0.0,0.0,0.0,0.0,0.0,0.0,0.0,0.0,0.0,0.0,0.0,0.0,0.0,0.0,0.0,0.0,0.0,0.0,4.6086,4.7971,4.6894,4.9663,5.2241,5.3472,5.4664,5.578,5.6819,5.805,5.8896,5.9165,6.005,6.0881,6.1597,6.1947,6.2556,6.3464,6.3611,6.3792,6.4018,6.4753,6.5102,6.5141,6.639,6.7,6.7084,6.7748,6.798,6.7969,6.8047,6.8163,6.8265,6.8085,6.8304,6.8538,6.6078,6.5492,6.6039,6.6039,6.6039,6.6039,6.6039,6.6039,6.6039,6.6039,6.6039,6.6156,6.682,6.6976,6.7093,6.7718,6.7952,6.8062,6.8066,6.8082,6.8178,6.8511,6.8991,6.938,6.9541,7.0644,7.1556,7.1387,7.1761,7.1684,7.0437,7.0206,7.0667,7.2118,7.2696,7.3042,7.3129,7.3553,7.3322,7.1975,7.1822,7.1849,7.1811,7.1079,7.1464,7.3559,7.2927,7.2552,7.2783,7.214,7.1106,6.9705,6.5126,6.2218,0.0,0.0,0.0,0.0,0.0,0.0,0.0,0.0,0.0,0.0,0.0,0.0,0.0,0.0,0.0,0.0,0.0,0.0,0.0,0.0,0.0,0.0,4.9933,5.1856,5.1356,5.2972,5.4741,5.6088,5.6857,5.7703,5.8704,5.9627,6.0281,6.065,6.1304,6.2098,6.3007,6.3149,6.3793,6.5074,6.5228,6.5609,6.6309,6.6922,6.7226,6.7187,6.8242,6.8906,6.9258,6.9765,7.0195,7.0508,7.0547,7.0743,7.1005,7.0644,7.0937,7.1328,0.0,0.0,0.0,0.0,6.7969,6.7969,6.7969,6.7969,6.7969,6.7969,6.7969,6.8047,6.8555,6.8945,6.9336,6.9805,7.039,7.0937,7.0937,7.1034,7.1174,7.1276,7.1534,7.1757,7.1762,7.2551,7.3292,7.3148,7.3911,0.0,7.3446,7.2688,7.2476,7.3245,7.3997,7.4453,7.453,7.5166,7.536,7.4624,7.4552,7.4395,7.4048,7.294,0.0,0.0,0.0,7.308,7.2765,7.2409,0.0,0.0,0.0,6.5709,6.6015,6.3164,0.0,0.0,5.668,5.5586,0.0,0.0,0.0,0.0,0.0,0.0,0.0,0.0,0.0,0.0,0.0,0.0,0.0,0.0,0.0,0.0,5.3454,5.6049,5.6165,5.6165,5.6434,5.7165,5.8588,5.9627,5.9781,6.0627,6.152,6.2381,6.2644,6.3238,6.4301,6.4398,0.0,0.0,0.0,6.789,6.9414,6.9648,6.9765,6.9687,6.9961,7.0469,7.1133,7.1133,7.1562,7.2305,7.2305,7.2734,7.3398,7.2617,7.3203,7.4297,7.1172,7.0,7.0,7.0,7.0,7.0,7.0,0.0,0.0,7.0078,7.0039,7.0,7.0,7.0547,7.1133,7.1133,7.2265,7.3437,7.3437,7.3906,7.4375,7.457,7.4474,7.4392,7.4566,7.4639,7.4634,7.4606,7.5245,7.6027,7.6805,7.5563,7.4241,7.363,7.4806,7.5765,7.5791,7.7143,7.8326,7.8884,7.8917,0.0,7.7857,7.5702,7.5118,7.6828,7.481,7.3176,7.2426,7.1629,7.1223,7.1229,7.0428,7.0742,7.2305,7.1523,7.0781,6.9844,6.1015,5.8867,0.0,0.0,0.0,0.0,0.0,0.0,0.0,0.0,0.0,0.0,0.0,0.0,0.0,0.0,0.0,5.4458,5.6634,5.8226,5.9056,5.9172,5.9111,5.9011,5.9457,6.0265,6.1636,6.2098,6.2643,6.3439,6.369,6.4479,6.6005,6.6279,6.7132,6.8867,6.8906,6.9101,6.9492,7.082,7.1523,7.1523,7.293,0.0,7.3867,7.3867,7.3945,7.4101,7.4101,7.418,7.4336,7.418,7.4297,7.4531,7.3867,7.3594,7.3594,7.3594,7.3594,7.3594,7.3594,7.3594,7.3594,7.3594,7.3594,7.3594,7.3594,7.3711,0.0,7.3867,7.4101,7.4336,7.4336,7.4453,7.4531,7.4609,7.5622,7.6556,7.6406,7.7566,7.8545,7.8394,7.8632,7.8883,7.9091,7.8007,7.739,7.8034,7.8409,7.8669,7.884,7.9131,7.8855,7.7488,7.7321,7.728,7.7125,7.6475,7.6908,7.8742,7.8276,7.7576,7.6726,7.603,7.5347,7.4688,7.3969,7.375,7.4101,7.3945,7.3789,7.3515,6.8906,6.7187,0.0,0.0,0.0,0.0,0.0,0.0,0.0,0.0,0.0,0.0,0.0,4.8475,5.1313,0.0,5.5009,5.7119,5.8451,5.9443,5.9908,6.0721,6.1041,6.0481,6.0881,6.1516,6.2352,6.3008,6.3874,6.5118,6.5387,6.6229,6.7915,6.8136,6.8984,7.0664,7.0703,7.1133,7.2031,7.289,7.3281,7.332,7.418,7.4844,7.5234,7.5234,7.5742,7.6562,7.6562,7.6797,7.7148,7.7148,7.7148,7.7148,7.7148,7.6094,7.4609,7.4609,7.4609,7.4609,7.4609,7.4609,7.4609,7.4609,7.4609,7.4687,7.5117,7.5547,7.5976,7.6445,7.6836,7.7148,7.7148,7.7148,7.7148,7.7148,7.7812,7.8437,7.832,7.9023,7.9675,7.9559,7.9978,8.0367,8.0367,8.0211,7.9977,7.9597,7.9569,7.9723,8.0272,8.0351,8.0156,7.9648,7.9611,7.9442,7.9001,7.8456,7.8533,7.9502,7.9502,7.9268,7.8838,7.848,7.8115,7.7648,7.7307,7.6953,7.6562,7.6562,7.6328,7.5859,7.414,7.289,0.0,0.0,0.0,0.0,0.0,0.0,0.0,4.4414,4.5625,4.9141,5.0976,5.2812,5.5625,5.668,5.7629,5.9033,5.9856,6.0346,6.0572,6.174,6.2405,6.1948,6.2474,6.3029,6.3362,6.4145,6.5335,6.7019,6.7305,6.8125,6.9805,6.9961,7.0742,7.2461,7.25,7.3164,7.4609,7.4765,7.4922,7.5117,7.5273,7.582,7.664,7.664,7.7383,7.8711,7.8711,7.9101,7.9687,7.9687,7.9687,7.9687,7.9687,7.8008,7.5586,7.5586,7.5586,7.5586,7.5586,7.5586,7.5586,7.5586,7.5586,7.5703,7.6445,7.7148,7.7812,7.8555,7.9219,7.9687,7.9687,7.9687,7.9687,7.9687,7.9844,7.9961,7.9961,8.0078,8.0195,8.0195,8.0781,8.125,8.125,8.1836,8.1836,8.0429,8.0195,8.0469,8.1172,8.125,8.1523,8.2226,8.2304,8.2031,8.1328,8.0625,8.0195,8.0195,8.0195,8.0117,7.9961,7.9961,7.9883,7.9687,7.9687,7.9375,7.8711,7.8711,7.8359,7.7695,7.7695,7.668,4.2226,4.1953,4.2812,4.5156,4.6328,4.8281,0.0,5.375,5.3672,5.7187,5.8047,5.8515,5.9609,5.9805,6.0116,6.1201,6.133,6.164,6.2546,6.283,6.3196,6.3858,6.3923,6.454,6.6019,6.6439,6.7294,6.8974,6.9178,6.9922,7.1601,7.1719,7.2539,7.4258,7.4297,7.4414,7.4609,7.5351,7.6133,7.6914,7.7695,7.8476,7.9258,7.9258,7.9375,7.957,7.957,7.9609,7.9687,7.9687,7.9687,7.9687,7.9687,7.9453,7.914,7.914,7.914,7.914,7.914,7.914,7.914,7.914,7.914,7.914,7.9258,7.9336,7.9453,7.9531,7.9648,7.9687,7.9687,7.9687,7.9687,7.9687,8.0273,8.0859,8.0859,8.1445,8.1992,8.1992,8.2109,8.2148,8.2148,8.2226,8.2226,8.2031,8.1992,8.2031,8.2148,8.2148,8.2187,8.2304,8.2304,8.2265,8.2148,8.207,8.1992,8.1992,8.1992,8.164,8.0898,8.0859,8.0508,7.9726,7.9687,7.9648,7.957,7.957,7.9531,7.9414,7.9414,7.8086,4.8828,4.8789,4.9023,5.1641,5.2578,5.3516,5.6015,5.6055,5.6367,5.9297,5.9883,6.0156,6.1015,6.1094,6.1367,6.2305,6.2413,6.2687,6.3633,6.4614,6.539,6.578,6.6619,6.7073,6.68,6.775,6.9101,7.0781,7.0937,7.1719,7.3437,7.3515,7.4062,7.5312,7.5859,7.6367,7.6875,7.7695,7.8281,7.8672,7.9023,7.9375,7.9687,7.9687,7.9961,8.0469,8.0976,8.1211,8.1211,8.1211,8.1211,8.1211,8.1211,8.1211,8.1094,8.0078,7.9687,7.9687,7.9687,7.9687,7.9687,7.9687,7.9687,7.9805,8.0312,8.0469,8.0547,8.1054,8.1211,8.1211,8.1211,8.1211,8.1211,8.1211,8.1484,8.1758,8.1758,8.2031,8.2304,8.2304,8.2304,8.2304,8.2304,8.2304,8.2304,8.2304,8.2304,8.2304,8.2304,8.2304,8.2304,8.2304,8.2304,8.2304,8.2304,8.2304,8.2304,8.2304,8.2304,8.2148,8.1758,8.1758,8.1601,8.1211,8.1211,8.1211,8.1211,8.1211,8.1211,8.1211,8.1211,8.0351,5.2226,5.2812,5.332,5.5937,5.7148,5.7656,5.7656,5.7812,5.8515,6.039,6.0742,6.1015,6.1914,6.207,6.2344,6.3203,6.3359,6.375,6.4844,6.6094,6.707,6.7578,6.9101,6.9648,6.8437,6.9453,7.0781,7.2265,7.2578,7.3476,7.5234,7.5312,7.582,7.6914,7.7578,7.8203,7.8828,7.9414,7.9805,8.0078,8.0078,8.0195,8.0429,8.0429,8.0742,8.1406,8.2031,8.2304,8.2304,8.2304,8.2304,8.2304,8.2304,8.2304,8.2148,8.0898,8.0429,8.0429,8.0429,8.0429,8.0429,8.0429,8.0429,8.0547,8.1172,8.1367,8.1484,8.2109,8.2304,8.2304,8.2304,8.2304,8.2304,8.2304,8.2304,8.2304,8.2304,8.2304,8.2304,8.2304,8.2304,8.2304,8.2304,8.2304,8.2304,8.2304,8.2304,8.2304,8.2304,8.2304,8.2304,8.2304,8.2304,8.2304,8.2304,8.2304,8.2304,8.2304,8.2304,8.2304,8.2304,8.2304,8.2304,8.2304,8.2304,8.2304,8.2304,8.2304,8.2304,8.2304,8.2304,8.1953,5.0078,5.1484,5.332,5.5937,5.8476,6.0273,6.0273,6.0937,6.1562,6.164,6.164,6.1914,6.2812,6.2969,6.3242,6.4101,6.4258,6.4844,6.6562,6.6875,6.7539,6.9219,7.0898,7.1914,7.1836,7.1875,7.2305,7.3203,7.4023,7.5273,7.7031,7.7109,7.789,7.9531,7.9609,7.9648,7.9648,7.9687,8.0117,8.0976,8.0976,8.1406,8.2226,8.2226,8.2226,8.2265,8.2304,8.2304,8.2304,8.2304,8.2304,8.2304,8.2304,8.2304,8.2304,8.2226,8.2226,8.2226,8.2226,8.2226,8.2226,8.2226,8.2226,8.2226,8.2265,8.2265,8.2265,8.2304,8.2304,8.2304,8.2304,8.2304,8.2304,8.2304,8.2304,8.2304,8.2304,8.2304,8.2304,8.2304,8.2304,8.2304,8.2304,8.2304,8.2304,8.2304,8.2304,8.2304,8.2304,8.2304,8.2304,8.2304,8.2304,8.2304,8.2304,8.2304,8.2304,8.2304,8.2304,8.2304,8.2304,8.2304,8.2304,8.2304,8.2304,8.2304,8.2304,8.2304,8.2304,8.2304,8.2304,8.2304,5.3047,5.4844,5.6758,5.9336,6.0625,6.125,6.125,6.1484,6.1719,6.1719,6.1719,6.1797,6.207,6.2617,6.3281,6.414,6.5273,6.6445,6.7617,6.8711,6.9844,7.1015,7.2187,7.3086,7.3672,7.3711,7.4101,7.4961,7.582,7.6836,7.8008,7.8555,7.9101,7.9687,8.0273,8.0547,8.0547,8.1133,8.1562,8.1875,8.1875,8.2031,8.2304,8.2304,8.2304,8.2304,8.2304,8.2304,8.2304,8.2304,8.2304,8.2304,8.2304,8.2304,8.2304,8.2304,8.2304,8.2304,8.2304,8.2304,8.2304,8.2304,8.2304,8.2304,8.2304,8.2304,8.2304,8.2304,8.2304,8.2304,8.2304,8.2304,8.2304,8.2304,8.2304,8.2304,8.2304,8.2734,8.3164,8.3164,8.3633,8.4023,8.4023,8.4023,8.4023,8.4023,8.3047,8.2304,8.2304,8.2304,8.2304,8.2304,8.2304,8.2304,8.2304,8.2304,8.2304,8.2304,8.2304,8.2304,8.2304,8.2304,8.2304,8.2304,8.2304,8.2304,8.2304,8.2304,8.2304,8.2304,8.2304,8.2304,5.5351,5.7031,5.8515,6.1055,6.1719,6.1719,6.1719,6.1953,6.2148,6.2148,6.1914,6.1875,6.25,6.3086,6.3867,6.5039,6.6914,6.8437,6.9023,7.0547,7.1836,7.2383,7.3515,7.4453,7.5,7.5625,7.6094,7.6367,7.7187,7.8164,7.9336,7.9883,8.0312,8.0625,8.1172,8.1445,8.1445,8.2031,8.2304,8.2304,8.2304,8.2304,8.2304,8.2304,8.2304,8.2304,8.2304,8.2304,8.2304,8.2304,8.2304,8.2304,8.2304,8.2304,8.2304,8.2304,8.2304,8.2304,8.2304,8.2304,8.2304,8.2304,8.2304,8.2304,8.2304,8.2304,8.2304,8.2304,8.2304,8.2304,8.2304,8.2304,8.2383,8.2695,8.2773,8.2851,8.3164,8.3672,8.4062,8.4062,8.4531,8.4883,8.4883,8.4883,8.4883,8.4883,8.3945,8.3125,8.2812,8.3047,8.3125,8.2812,8.3047,8.3086,8.2773,8.2773,8.2617,8.2304,8.2304,8.2304,8.2304,8.2304,8.2304,8.2304,8.2304,8.2304,8.2304,8.2304,8.2304,8.2304,8.2304,8.2304,5.6836,5.8047,5.875,6.1172,6.1797,6.1836,6.1836,6.2461,6.3047,6.2969,6.2265,6.2187,6.375,6.418,6.4844,6.6484,6.8984,7.0703,7.0742,7.2226,7.332,7.3437,7.4922,7.5976,7.6015,7.7578,7.8242,7.7461,7.8164,7.9336,8.0937,8.1054,8.1445,8.2265,8.2304,8.2304,8.2304,8.2304,8.2304,8.2304,8.2304,8.2304,8.2304,8.2304,8.2304,8.2304,8.2304,8.2304,8.2304,8.2304,8.2304,8.2304,8.2304,8.2304,8.2304,8.2304,8.2304,8.2304,8.2304,8.2304,8.2304,8.2304,8.2304,8.2304,8.2304,8.2304,8.2304,8.2344,8.2383,8.2383,8.2422,8.2422,8.2656,8.3476,8.3672,8.3906,8.4726,8.4922,8.4961,8.4961,8.5,8.5039,8.5039,8.5039,8.5039,8.5039,8.5039,8.4687,8.3789,8.4375,8.457,8.375,8.4414,8.457,8.375,8.3672,8.332,8.25,8.2422,8.2422,8.2422,8.2422,8.2422,8.2383,8.2383,8.2344,8.2304,8.2304,8.2304,8.2304,8.2304,8.2304,5.8398,6.0234,6.1875,6.25,6.3164,6.3633,6.3633,6.3828,6.3594,6.2305,6.1836,6.1445,6.0664,6.2578,6.4453,6.4883,6.8203,7.0937,7.1562,7.2617,7.3789,7.5078,7.6211,7.7109,7.7773,7.8789,7.957,8.0,8.0234,8.0547,8.0976,8.1601,8.207,8.2304,8.2304,8.2304,8.2304,8.2304,8.2304,8.2304,8.2304,8.2304,8.2304,8.2304,8.2304,8.2304,8.2304,8.2304,8.2304,8.2304,8.2304,8.2304,8.2304,8.2304,8.2304,8.2304,8.2304,8.2304,8.2304,8.2304,8.2304,8.2304,8.2304,8.2304,8.2304,8.2304,8.2422,8.3086,8.3281,8.3437,8.4062,8.4258,8.4297,8.4531,8.457,8.4648,8.4844,8.539,8.5859,8.5859,8.6406,8.6836,8.6836,8.6836,8.6836,8.6836,8.6836,8.6289,8.4765,8.4765,8.4804,8.4609,8.4765,8.4804,8.4609,8.457,8.4453,8.4258,8.4258,8.4258,8.4258,8.4258,8.3945,8.3281,8.3281,8.2969,8.2304,8.2304,8.2304,8.2304,8.2304,8.2304,5.9961,6.1601,6.3008,6.3008,6.3672,6.4101,6.332,6.3437,6.3125,6.1055,6.0586,6.0195,5.8867,6.1758,6.4414,6.4805,6.9101,7.2578,7.3086,7.4219,7.5351,7.6367,7.7226,7.8086,7.8945,7.9765,8.0469,8.0976,8.1015,8.1172,8.1562,8.2031,8.2304,8.2304,8.2304,8.2304,8.2304,8.2304,8.2304,8.2304,8.2304,8.2304,8.2304,8.2304,8.2304,8.2304,8.2304,8.2539,8.2851,8.2851,8.3086,8.3437,8.3437,8.3437,8.3437,8.3437,8.3437,8.3437,8.3437,8.3437,8.332,8.2539,8.2578,8.2851,8.2851,8.3125,8.3554,8.4023,8.4179,8.4297,8.4765,8.4883,8.5,8.539,8.5469,8.5586,8.5976,8.6445,8.6758,8.6758,8.7187,8.75,8.75,8.75,8.75,8.75,8.75,8.7148,8.6172,8.6054,8.5898,8.5508,8.582,8.5898,8.5508,8.5469,8.5312,8.4922,8.4883,8.4883,8.4883,8.4883,8.4687,8.4179,8.4179,8.3945,8.3437,8.3437,8.3437,8.3437,8.3437,8.3437,6.1445,6.25,6.3203,6.332,6.3984,6.418,6.2422,6.2461,6.2109,5.9531,5.8828,5.8437,5.7695,6.0976,6.418,6.539,7.0351,7.4258,7.4726,7.6055,7.7109,7.7344,7.8125,7.8984,7.9805,8.0664,8.1172,8.1172,8.1172,8.1484,8.2265,8.2304,8.2304,8.2304,8.2304,8.2304,8.2304,8.2304,8.2304,8.2304,8.2304,8.2304,8.2304,8.2304,8.2304,8.2304,8.2422,8.289,8.3594,8.3711,8.4219,8.4883,8.4883,8.4883,8.4883,8.4883,8.4883,8.4883,8.4883,8.4883,8.4648,8.3125,8.3164,8.3789,8.3789,8.4297,8.4922,8.5039,8.5078,8.5117,8.5234,8.5234,8.5429,8.6172,8.6367,8.6562,8.7344,8.75,8.75,8.75,8.75,8.75,8.75,8.75,8.75,8.75,8.75,8.75,8.75,8.75,8.7226,8.6445,8.7031,8.7187,8.6445,8.6367,8.6054,8.5273,8.5234,8.5234,8.5234,8.5234,8.5195,8.5078,8.5078,8.5039,8.4883,8.4883,8.4883,8.4883,8.4883,8.4883,6.25,6.3398,6.4258,6.4961,6.5781,6.5976,6.4258,6.2851,6.1211,5.8633,5.6992,5.5937,5.5781,5.8672,6.207,6.5117,6.8867,7.2383,7.5273,7.5937,7.664,7.8086,7.8984,7.9844,8.0703,8.1562,8.207,8.207,8.207,8.2148,8.2304,8.2304,8.2304,8.2304,8.2304,8.2304,8.2304,8.2304,8.2304,8.2304,8.2304,8.2304,8.2304,8.2304,8.2304,8.2344,8.3047,8.3476,8.3672,8.4375,8.4765,8.4883,8.4883,8.4883,8.4883,8.4883,8.4883,8.4883,8.4883,8.4883,8.4844,8.4531,8.4531,8.4687,8.4687,8.4765,8.5039,8.5781,8.5976,8.6133,8.6875,8.7031,8.7109,8.7226,8.7265,8.7304,8.7461,8.75,8.75,8.75,8.75,8.75,8.75,8.75,8.75,8.75,8.75,8.75,8.75,8.75,8.7422,8.7304,8.7422,8.7422,8.7304,8.7265,8.7226,8.707,8.7031,8.7031,8.7031,8.7031,8.6719,8.5976,8.5976,8.5625,8.4883,8.4883,8.4883,8.4883,8.4883,8.4883,6.2773,6.3633,6.4492,6.539,6.625,6.6094,6.2969,6.1289,5.9414,5.5898,5.4531,5.3828,5.3359,5.6836,6.0469,6.2539,6.7305,7.1601,7.418,7.5703,7.7226,7.8906,7.9453,8.0234,8.1562,8.2031,8.2304,8.2304,8.2304,8.2304,8.2304,8.2304,8.2304,8.2304,8.2304,8.2304,8.2304,8.2304,8.2304,8.2304,8.2304,8.2304,8.2304,8.2304,8.2539,8.3008,8.3437,8.4101,8.5,8.539,8.5859,8.625,8.625,8.625,8.625,8.625,8.625,8.625,8.625,8.625,8.625,8.625,8.5937,8.5586,8.5586,8.5898,8.6328,8.6758,8.6875,8.6953,8.7383,8.75,8.75,8.75,8.75,8.75,8.75,8.75,8.75,8.75,8.75,8.75,8.75,8.75,8.75,8.75,8.75,8.75,8.75,8.75,8.75,8.75,8.75,8.75,8.75,8.75,8.75,8.75,8.75,8.75,8.75,8.75,8.7304,8.6875,8.6875,8.6679,8.625,8.625,8.625,8.625,8.625,8.625,6.3008,6.3789,6.4531,6.5625,6.6406,6.5742,6.1406,5.9492,5.7461,5.3281,5.2148,5.1836,5.1719,5.5351,5.8945,6.0664,6.582,7.0469,7.2969,7.539,7.7617,7.9492,7.9844,8.0586,8.2148,8.2304,8.2304,8.2304,8.2304,8.2304,8.2304,8.2304,8.2304,8.2304,8.2304,8.2304,8.2304,8.2304,8.2304,8.2304,8.2304,8.2383,8.2578,8.2578,8.3047,8.3906,8.4062,8.4922,8.6211,8.6406,8.6875,8.75,8.75,8.75,8.75,8.75,8.75,8.75,8.75,8.75,8.75,8.75,8.7031,8.6484,8.6484,8.6953,8.75,8.75,8.75,8.75,8.75,8.75,8.75,8.75,8.75,8.75,8.75,8.75,8.75,8.75,8.75,8.75,8.75,8.75,8.75,8.75,8.75,8.75,8.75,8.75,8.75,8.75,8.75,8.75,8.75,8.75,8.75,8.75,8.75,8.75,8.75,8.75,8.75,8.75,8.75,8.75,8.75,8.75,8.75,8.75,8.75,8.75,6.3711,6.4258,6.4687,6.6367,6.6836,6.5781,6.1484,5.8594,5.582,5.2266,5.0312,4.9922,5.2187,5.4258,5.7226,6.1992,6.4609,6.7773,7.2617,7.4883,7.6953,7.9414,8.039,8.125,8.2226,8.2304,8.2304,8.2304,8.2304,8.2304,8.2304,8.2304,8.2304,8.2304,8.2304,8.2304,8.2304,8.2304,8.2304,8.2304,8.2304,8.2695,8.3476,8.3476,8.3945,8.4804,8.5625,8.6054,8.625,8.7031,8.7422,8.75,8.75,8.75,8.75,8.75,8.75,8.75,8.75,8.75,8.75,8.75,8.7461,8.7383,8.7383,8.7422,8.75,8.75,8.75,8.75,8.75,8.75,8.75,8.75,8.75,8.75,8.75,8.75,8.75,8.75,8.75,8.75,8.75,8.75,8.75,8.75,8.75,8.75,8.75,8.75,8.75,8.75,8.75,8.75,8.75,8.75,8.75,8.75,8.75,8.75,8.75,8.75,8.75,8.75,8.75,8.75,8.75,8.75,8.75,8.75,8.75,8.75,6.3672,6.4297,6.4726,6.6445,6.6523,6.5,6.0703,5.8086,5.5625,5.2109,5.0469,5.0312,5.2344,5.3281,5.5078,5.9258,6.1797,6.4531,6.8164,7.1484,7.4492,7.7109,7.8633,8.0234,8.2109,8.2304,8.2304,8.2304,8.2304,8.2304,8.2304,8.2304,8.2304,8.2304,8.2304,8.2304,8.2304,8.2304,8.2304,8.2304,8.2812,8.3242,8.3633,8.414,8.4844,8.5703,8.6054,8.6484,8.6992,8.7344,8.75,8.75,8.75,8.75,8.75,8.75,8.75,8.75,8.75,8.75,8.75,8.75,8.75,8.75,8.75,8.75,8.75,8.75,8.75,8.75,8.75,8.75,8.75,8.75,8.75,8.75,8.75,8.75,8.7656,8.8125,8.8203,8.8203,8.8203,8.8672,8.8672,8.7656,8.8359,8.8633,8.7617,8.7929,8.8047,8.7539,8.75,8.75,8.75,8.75,8.75,8.75,8.75,8.75,8.75,8.75,8.75,8.75,8.75,8.75,8.75,8.75,8.75,8.75,8.75,8.75,6.3203,6.4101,6.4648,6.6133,6.5859,6.414,6.0117,5.7656,5.5234,5.1758,5.0586,5.0703,5.2383,5.2891,5.4219,5.7734,6.0,6.25,6.5898,6.9414,7.2695,7.5547,7.7422,7.9297,8.1328,8.1992,8.2304,8.2304,8.2304,8.2304,8.2304,8.2304,8.2304,8.2304,8.2304,8.2304,8.2304,8.2578,8.2695,8.2695,8.3554,8.4101,8.4375,8.5,8.5742,8.6562,8.6562,8.6914,8.75,8.75,8.75,8.75,8.75,8.75,8.75,8.75,8.75,8.75,8.75,8.75,8.75,8.75,8.75,8.75,8.75,8.75,8.75,8.75,8.75,8.7539,8.7773,8.7851,8.7929,8.8164,8.8242,8.8242,8.8242,8.8242,8.8398,8.8984,8.9062,8.9062,8.9062,8.9609,8.9609,8.8437,8.9258,8.957,8.8398,8.8711,8.8789,8.7929,8.7851,8.7773,8.7539,8.75,8.75,8.75,8.75,8.75,8.75,8.75,8.75,8.75,8.75,8.75,8.75,8.75,8.75,8.75,8.75,8.75,6.2305,6.3633,6.4492,6.539,6.4961,6.3437,5.9961,5.7187,5.4336,5.0937,5.0195,5.0703,5.2383,5.3398,5.5117,5.8633,5.9883,6.2226,6.7422,6.9648,7.1992,7.5508,7.7422,7.8828,7.9648,8.1289,8.2304,8.2304,8.2304,8.2304,8.2304,8.2304,8.2304,8.2304,8.2304,8.2304,8.2304,8.3164,8.3594,8.3594,8.4453,8.5351,8.6172,8.6172,8.664,8.75,8.75,8.75,8.75,8.75,8.75,8.75,8.75,8.75,8.75,8.75,8.75,8.75,8.75,8.75,8.75,8.75,8.75,8.75,8.75,8.75,8.75,8.75,8.75,8.7695,8.8476,8.8672,8.8906,8.9765,8.9961,8.9961,8.9961,8.9961,8.9961,8.9961,9.0,9.0,9.0,9.0,9.0,8.9961,9.0,9.0,8.9961,8.9961,8.9648,8.8789,8.8672,8.8359,8.7578,8.75,8.75,8.75,8.75,8.75,8.75,8.75,8.75,8.75,8.75,8.75,8.75,8.75,8.75,8.75,8.75,8.75,6.0039,6.1445,6.2461,6.2148,6.1836,6.0898,5.8086,5.6328,5.4492,5.1601,5.1016,5.1367,5.25,5.2422,5.3945,5.918,5.9765,6.1406,6.6562,6.9765,7.2422,7.4726,7.8594,8.1211,8.1445,8.1992,8.2304,8.2304,8.2304,8.2304,8.2304,8.2304,8.2304,8.2304,8.2304,8.2578,8.3164,8.3476,8.3906,8.4492,8.5351,8.5937,8.6211,8.6836,8.7226,8.75,8.75,8.75,8.75,8.75,8.75,8.75,8.75,8.75,8.75,8.75,8.75,8.75,8.75,8.75,8.75,8.75,8.75,8.7617,8.8164,8.832,8.8437,8.9023,8.9219,8.9258,8.9531,8.9609,8.9648,8.9922,9.0,9.0,9.0,9.0,9.0195,9.0781,9.0898,9.0898,9.0898,9.1367,9.1367,9.0195,9.1015,9.1367,9.0156,9.0508,9.0312,8.8867,8.8711,8.8359,8.7578,8.75,8.75,8.75,8.75,8.75,8.75,8.75,8.75,8.75,8.75,8.75,8.75,8.75,8.75,8.75,8.75,8.75,5.7305,5.9219,6.0625,6.0078,5.9687,5.8945,5.7031,5.543,5.375,5.1797,5.1406,5.168,5.2539,5.2266,5.3437,5.8203,5.8828,6.0742,6.6562,6.9492,7.2265,7.5664,7.918,8.1445,8.1797,8.2109,8.2304,8.2304,8.2304,8.2304,8.2304,8.2304,8.2461,8.2773,8.2773,8.3047,8.3594,8.4258,8.4844,8.539,8.6289,8.6679,8.6719,8.7265,8.75,8.75,8.75,8.75,0.0,8.75,8.75,8.75,8.75,8.75,8.75,8.75,8.75,8.75,8.75,8.75,8.7539,8.7851,8.8164,8.8594,8.9414,8.9453,8.9297,8.9844,9.0,9.0078,9.039,9.0508,9.0586,9.0898,9.0976,9.0976,9.0976,9.0976,9.1133,9.1679,9.1797,9.1797,9.1797,9.2226,9.2226,9.1133,9.1914,9.2226,9.1133,9.1445,9.125,8.9844,8.9687,8.9219,8.8047,8.7656,8.75,8.75,8.75,8.75,8.75,8.75,8.75,8.75,8.75,8.75,8.75,8.75,8.75,8.75,8.75,8.75,0.0,5.6719,5.8711,5.8594,5.8047,5.7305,5.6445,5.4414,0.0,5.1562,5.1406,5.168,5.2617,5.2734,5.3633,5.6484,5.7656,6.0586,6.75,6.9414,7.2265,7.8086,7.9414,8.0195,8.1015,8.1836,8.2304,8.2304,8.2304,8.2304,8.2304,8.2304,8.2695,8.3554,8.3672,8.3711,8.3789,8.539,8.6211,8.6289,8.7109,8.75,8.75,8.75,8.75,8.75,8.75,8.75,8.75,8.75,8.75,8.75,8.75,8.75,8.75,8.75,8.75,8.75,8.7578,8.7578,8.7734,8.8515,8.9375,9.0234,9.1054,9.0742,9.0117,9.0156,9.0195,9.0351,9.1172,9.1406,9.1601,9.2422,9.2617,9.2617,9.2617,9.2617,9.2617,9.2617,9.2617,9.2617,9.2617,9.2617,9.2617,9.2617,9.2617,9.2617,9.2617,9.2617,9.2265,9.1406,9.1289,9.0625,8.8945,8.8047,8.7578,8.75,8.75,8.75,8.75,8.75,8.75,8.75,8.75,8.75,8.75,8.75,8.75,8.75,8.75,8.75,4.9258,0.0,5.3906,5.2656,5.3125,5.3672,0.0,5.2656,5.2461,5.1562,5.1406,5.1875,5.3398,5.3164,5.4414,5.9648,6.0664,6.3203,7.0156,7.4687,7.832,8.1094,8.1562,8.1758,8.1953,8.2187,8.2304,8.2304,8.2304,8.2304,8.2304,8.2304,8.2695,8.3554,8.4258,8.4922,8.5586,8.6015,8.6523,8.7187,8.7383,8.75,8.75,8.75,8.75,8.75,8.75,8.75,8.75,8.75,8.75,8.75,8.75,8.75,8.75,8.75,8.75,8.7578,8.8203,8.8437,8.8554,8.9414,9.0273,9.1015,9.125,9.1172,9.1133,9.1797,9.1992,9.2031,9.2226,9.2304,9.2344,9.2539,9.2617,9.2617,9.2617,9.2617,9.2617,9.2617,9.2617,9.2617,9.2617,9.2617,9.2617,9.2617,9.2617,9.2617,9.2617,9.2617,9.2265,9.1406,9.1289,9.0859,8.9804,8.8906,8.8164,8.7539,8.75,8.75,8.75,8.75,8.75,8.75,8.75,8.75,8.75,8.75,8.75,8.75,8.75,8.75,4.6992,4.9805,5.2578,5.207,5.2305,5.2773,5.3125,5.2344,5.1523,5.1406,5.1406,5.1914,5.3672,5.4609,5.6289,5.9961,6.289,6.6953,7.3476,7.8125,8.125,8.2187,8.2304,8.2304,8.2304,8.2304,8.2304,8.2304,8.2304,8.2461,8.289,8.289,8.3476,8.4765,8.5234,8.5703,8.6211,8.6601,8.7031,8.75,8.75,8.75,8.75,8.75,8.75,8.75,8.75,8.75,8.75,8.75,8.75,8.75,8.75,8.75,8.75,8.75,8.75,8.7617,8.8437,8.9219,8.9961,9.0429,9.1172,9.1914,9.1914,9.1914,9.1992,9.2461,9.2617,9.2617,9.2617,9.2617,9.2617,9.2617,9.2617,9.2617,9.2617,9.2617,9.2617,9.2617,9.2617,9.2617,9.2617,9.2617,9.2617,9.2617,9.2617,9.2617,9.2617,9.2617,9.2422,9.1953,9.1914,9.1523,9.0664,9.0156,8.9375,8.8125,8.7695,8.75,8.75,8.75,8.75,8.75,8.75,8.75,8.75,8.75,8.75,8.75,8.75,8.75,4.6797,4.9844,5.293,5.3008,5.2773,5.2891,5.4375,5.2578,5.082,5.1641,5.1914,5.2656,5.4765,5.6875,5.8828,6.0508,6.5625,7.125,7.664,8.0234,8.2304,8.2304,8.2304,8.2304,8.2304,8.2304,8.2304,8.2304,8.2304,8.2695,8.3554,8.3594,8.4414,8.6133,8.6211,8.625,8.6406,8.7148,8.75,8.75,8.75,8.75,8.75,8.75,8.75,8.75,8.75,8.75,8.75,8.75,8.75,8.75,8.75,8.75,8.75,8.7656,8.7695,8.7812,8.8789,9.0156,9.1484,9.1484,9.1992,9.2617,9.2617,9.2617,9.2617,9.2617,9.2617,9.2617,9.2617,9.2617,9.2617,9.2617,9.2617,9.2617,9.2617,9.2617,9.2617,9.2617,9.2617,9.2617,9.2617,9.2617,9.2617,9.2617,9.2617,9.2617,9.2617,9.2617,9.2617,9.2617,9.2617,9.2304,9.1562,9.1367,9.0664,8.9179,8.832,8.7812,8.7695,8.7812,8.7773,8.75,8.7617,8.7617,8.75,8.75,8.75,8.75,8.75,8.75,4.8984,5.1641,5.2969,4.9453,5.0117,5.168,5.1953,5.2148,5.2578,5.3437,5.418,5.5898,5.9805,6.0234,6.1719,6.6992,7.1719,7.5547,7.7969,8.0625,8.2304,8.2304,8.2304,8.2304,8.2304,8.2304,8.2304,8.2304,8.2304,8.2695,8.3554,8.3594,8.4414,8.6133,8.6211,8.6562,8.7304,8.7422,8.75,8.75,8.75,8.75,8.75,8.75,8.75,8.75,8.75,8.75,8.75,8.75,8.75,8.75,8.75,8.75,8.7578,8.8242,8.8515,8.875,9.0351,9.1562,9.2383,9.2383,9.25,9.2617,9.2617,9.2617,9.2617,9.2617,9.2617,9.2617,9.2617,9.2617,9.2617,9.2617,9.2617,9.2617,9.2617,9.2617,9.2617,9.2617,9.2617,9.2617,9.2617,9.2617,9.2617,9.2617,9.2617,9.2617,9.2617,9.2617,9.2617,9.2617,9.2617,9.2539,9.2422,9.1719,9.1172,9.0937,9.0078,8.9297,8.8554,8.9219,8.8945,8.7539,8.8164,8.8164,8.75,8.75,8.75,8.75,8.75,8.75,4.7773,5.0312,5.2226,5.0742,5.332,5.6523,5.7461,5.7265,5.6836,5.6836,5.7148,5.8437,6.1797,6.3242,6.6328,7.375,7.6289,7.8086,8.0234,8.1562,8.2304,8.2304,8.2304,8.2304,8.2304,8.2304,8.2304,8.2304,8.2734,8.3398,8.4258,8.4765,8.5586,8.6875,8.6914,8.7109,8.75,8.75,8.75,8.75,8.75,8.75,8.75,8.75,8.75,8.75,8.75,8.75,8.75,8.75,8.75,8.7539,8.7969,8.8164,8.8242,8.9101,8.9687,9.0234,9.1015,9.1875,9.2617,9.2617,9.2617,9.2617,9.2617,9.2617,9.2617,9.2617,9.2617,9.2617,9.2617,9.2617,9.2617,9.2617,9.2617,9.2617,9.2617,9.2617,9.2617,9.2617,9.2617,9.2617,9.2617,9.2617,9.2617,9.2617,9.2617,9.2617,9.2617,9.2617,9.2617,9.2617,9.2617,9.2617,9.2617,9.2226,9.1601,9.0664,9.0234,8.9804,8.9414,8.9804,8.9648,8.8867,8.9219,8.9219,8.8867,8.8867,8.8867,8.8828,8.8359,8.8398,4.7344,4.9687,5.2305,5.3594,5.6562,5.9805,6.2148,6.1367,6.0234,6.0625,6.0859,6.1797,6.4336,6.7265,7.1523,7.832,7.9219,7.9844,8.1992,8.2304,8.2304,8.2304,8.2304,8.2304,8.2304,8.2304,8.2304,8.2304,8.3125,8.3984,8.4844,8.5742,8.6601,8.7461,8.75,8.75,8.75,8.75,8.75,8.75,8.75,8.75,8.75,8.75,8.75,8.75,8.75,8.75,8.75,8.75,8.7617,8.7851,8.8476,8.8945,8.9375,9.0078,9.0859,9.1601,9.1601,9.2031,9.2617,9.2617,9.2617,9.2617,9.2617,9.2617,9.2617,9.2617,9.2617,9.2617,9.2617,9.2617,9.2617,9.2617,9.2617,9.2617,9.2617,9.2617,9.2617,9.2617,9.2617,9.2617,9.2617,9.2617,9.2617,9.2617,9.2617,9.2617,9.2617,9.2617,9.2617,9.2617,9.2617,9.2617,9.2617,9.2617,9.2031,9.0703,9.0625,9.0508,9.0312,9.0508,9.0429,9.0,9.0195,9.0195,9.0,9.0,9.0,8.9961,8.9336,8.9375,5.0391,5.2383,5.4414,5.6914,5.6601,5.6758,6.0859,6.0508,6.039,6.4336,6.5781,6.7109,6.9687,7.3594,7.6914,7.8359,7.9844,8.1172,8.2148,8.2304,8.2304,8.2304,8.2304,8.2304,8.2304,8.2304,8.2304,8.2304,8.3125,8.3984,8.4844,8.5742,8.6601,8.7461,8.75,8.75,8.75,8.75,8.75,8.75,8.75,8.75,8.75,8.75,8.75,8.75,8.75,8.75,8.75,8.75,8.7929,8.8633,8.8672,8.9687,9.1133,9.1172,9.1758,9.25,9.25,9.2539,9.2617,9.2617,9.2617,9.2617,9.2617,9.2617,9.2617,9.2617,9.2617,9.2617,9.2617,9.2617,9.2617,9.2617,9.2617,9.2617,9.2617,9.2617,9.2617,9.2617,9.2617,9.2617,9.2617,9.2617,9.2617,9.2617,9.2617,9.2617,9.2617,9.2617,9.2617,9.2617,9.2617,9.2617,9.2617,9.2617,9.2539,9.2422,9.2422,9.2031,9.125,9.1992,9.164,9.0039,9.0781,9.082,9.0,9.0,9.0,9.0,8.9922,8.9922,4.8789,5.1875,5.5039,5.6055,5.8203,6.0937,6.418,6.5273,6.6211,6.832,6.9023,6.9883,7.1953,7.5859,7.8867,7.918,8.0703,8.1914,8.2265,8.2304,8.2304,8.2304,8.2304,8.2304,8.2304,8.2304,8.2539,8.3086,8.3906,8.4804,8.5664,8.6523,8.7148,8.75,8.75,8.75,8.75,8.75,8.75,8.75,8.75,8.75,8.75,8.75,8.75,8.75,8.75,8.7773,8.8242,8.8242,8.875,8.957,9.0117,9.1054,9.2109,9.2109,9.2304,9.2617,9.2617,9.2617,9.2617,9.2617,9.2617,9.2617,9.2617,9.2617,9.2617,9.2617,9.2617,9.2617,9.2617,9.2617,9.2617,9.2617,9.2617,9.2617,9.2617,9.2617,9.2617,9.2617,9.2617,9.2617,9.2617,9.2617,9.2617,9.2617,9.2617,9.2617,9.2617,9.2617,9.2617,9.2617,9.2617,9.2617,9.2617,9.2617,9.2617,9.2617,9.2617,9.2461,9.2109,9.2422,9.2304,9.164,9.1953,9.1953,9.1601,9.1601,9.1601,9.1601,9.1054,9.1094,4.9297,5.2383,5.5898,5.6719,5.9765,6.3476,6.6914,6.8437,6.9648,7.1523,7.1914,7.2539,7.457,7.7109,7.918,7.9961,8.1328,8.2304,8.2304,8.2304,8.2304,8.2304,8.2304,8.2304,8.2304,8.2304,8.2656,8.3515,8.4414,8.5273,8.6133,8.7031,8.75,8.75,8.75,8.75,8.75,8.75,8.75,8.75,8.75,8.75,8.75,8.75,8.75,8.75,8.7773,8.8203,8.8711,8.8984,8.9609,9.0508,9.1367,9.207,9.2617,9.2617,9.2617,9.2617,9.2617,9.2617,9.2617,9.2617,9.2617,9.2617,9.2617,9.2617,9.2617,9.2617,9.2617,9.2617,9.2617,9.2617,9.2617,9.2617,9.2617,9.2617,9.2617,9.2617,9.2617,9.2617,9.2617,9.2617,9.2617,9.2617,9.2617,9.2617,9.2617,9.2617,9.2617,9.2617,9.2617,9.2617,9.2617,9.2617,9.2617,9.2617,9.2617,9.2617,9.2617,9.2617,9.2617,9.2617,9.2617,9.2617,9.2617,9.2617,9.2617,9.2617,9.2617,9.2578,9.1992,9.2031,5.2891,5.4609,5.7226,5.9765,6.1094,6.3125,6.8242,6.8789,6.9453,7.3711,7.4648,7.543,7.8008,7.7812,7.8047,8.0586,8.1719,8.2304,8.2304,8.2304,8.2304,8.2304,8.2304,8.2304,8.2304,8.2304,8.2656,8.3554,8.4414,8.5273,8.6172,8.7031,8.75,8.75,8.75,8.75,8.75,8.75,8.75,8.75,8.75,8.75,8.75,8.75,8.75,8.7578,8.8359,8.8711,8.8789,8.9687,9.0547,9.1406,9.2265,9.2617,9.2617,9.2617,9.2617,9.2617,9.2617,9.2617,9.2617,9.2617,9.2617,9.2617,9.2617,9.2617,9.2617,9.2617,9.2617,9.2617,9.2617,9.2617,9.2617,9.2617,9.2617,9.2617,9.2617,9.2617,9.2617,9.2617,9.2617,9.2617,9.2617,9.2617,9.2617,9.2617,9.2617,9.2617,9.2617,9.2617,9.2617,9.2617,9.2617,9.2617,9.2617,9.2617,9.2617,9.2617,9.2617,9.2617,9.2617,9.2617,9.2617,9.2617,9.2617,9.2617,9.2617,9.2617,9.2617,9.2617,9.2617,9.2617,5.0273,5.4141,5.8476,5.8594,6.3828,6.918,7.0117,7.0117,7.1015,7.4765,7.6484,7.7578,7.8359,7.9258,8.0117,8.0898,8.1719,8.2304,8.2304,8.2304,8.2304,8.2304,8.2304,8.2304,8.2304,8.2851,8.3594,8.4453,8.5312,8.6172,8.707,8.7344,8.75,8.75,8.75,8.75,8.75,8.75,8.75,8.75,8.75,8.75,8.7539,8.8086,8.8359,8.8398,8.9258,8.9961,9.0586,9.1484,9.1992,9.2226,9.25,9.2617,9.2617,9.2617,9.2617,9.2617,9.2617,9.2617,9.2617,9.2617,9.2617,9.2617,9.2617,9.2617,9.2617,9.2617,9.2617,9.2617,9.2617,9.2617,9.2617,9.2617,9.2617,9.2617,9.2617,9.2617,9.2617,9.2617,9.2617,9.2617,9.2617,9.2617,9.2617,9.2617,9.2617,9.2617,9.2617,9.2617,9.2617,9.2617,9.2617,9.2617,9.2617,9.2617,9.2617,9.2617,9.2617,9.2617,9.2617,9.2617,9.2617,9.2617,9.2617,9.2617,9.2617,9.2617,9.2617,9.2617,9.2617,9.2617,5.4258,5.8047,6.1953,6.2773,6.6992,7.1289,7.25,7.2773,7.3555,7.6367,7.75,7.8281,7.9297,8.0039,8.0703,8.1406,8.1953,8.2304,8.2304,8.2304,8.2304,8.2304,8.2304,8.2304,8.2304,8.3086,8.3945,8.4844,8.5703,8.6562,8.7461,8.75,8.75,8.75,8.75,8.75,8.75,8.75,8.75,8.75,8.7812,8.7969,8.8008,8.8476,8.8711,8.8789,9.0,9.1015,9.1875,9.2383,9.2617,9.2617,9.2617,9.2617,9.2617,9.2617,9.2617,9.2617,9.2617,9.2617,9.2617,9.2617,9.2617,9.2617,9.2617,9.2617,9.2617,9.2617,9.2617,9.2617,9.2617,9.2617,9.2617,9.2617,9.2617,9.2617,9.2617,9.2617,9.2617,9.2617,9.2617,9.2617,9.2617,9.2617,9.2617,9.2617,9.2617,9.2617,9.2617,9.2617,9.2617,9.2617,9.2617,9.2617,9.2617,9.2617,9.2617,9.2617,9.2617,9.2617,9.2617,9.2617,9.2617,9.2617,9.2617,9.2617,9.2617,9.2617,9.2617,9.2617,9.2617,9.2617,6.1328,6.3828,6.6367,6.9648,7.0234,7.1055,7.5195,7.6133,7.6601,7.8164,7.8008,7.8242,8.0586,8.0429,8.0469,8.2031,8.2304,8.2304,8.2304,8.2304,8.2304,8.2304,8.2304,8.2344,8.2422,8.3203,8.4062,8.4961,8.582,8.664,8.7461,8.75,8.75,8.75,8.75,8.75,8.75,8.75,8.7539,8.7617,8.8359,8.875,8.8828,8.8906,8.8984,8.914,9.0742,9.1875,9.2617,9.2617,9.2617,9.2617,9.2617,9.2617,9.2617,9.2617,9.2617,9.2617,9.2617,9.2617,9.2617,9.2617,9.2617,9.2617,9.2617,9.2617,9.2617,9.2617,9.2617,9.2617,9.2617,9.2617,9.2617,9.2617,9.2617,9.2617,9.2617,9.2617,9.2617,9.2617,9.2617,9.2617,9.2617,9.2617,9.2617,9.2617,9.2617,9.2617,9.2617,9.2617,9.2617,9.2617,9.2617,9.2617,9.2617,9.2617,9.2617,9.2617,9.2617,9.2617,9.2617,9.2617,9.2617,9.2617,9.2617,9.2617,9.2617,9.2617,9.2617,9.2617,9.2617,9.2617,5.5742,6.0586,6.6094,6.8203,7.164,7.5117,7.7422,7.793,7.8047,7.8437,7.9414,8.0351,8.0898,8.1406,8.1875,8.2226,8.2304,8.2304,8.2304,8.2304,8.2304,8.2304,8.2304,8.2578,8.3242,8.4101,8.4961,8.5859,8.6719,8.7304,8.75,8.75,8.75,8.75,8.75,8.75,8.75,8.75,8.7812,8.8437,8.8633,8.9062,8.9726,9.0429,9.1094,9.1797,9.2148,9.2422,9.2617,9.2617,9.2617,9.2617,9.2617,9.2617,9.2617,9.2617,9.2617,9.2617,9.2617,9.2617,9.2617,9.2617,9.2617,9.2617,9.2617,9.2617,9.2617,9.2617,9.2617,9.2617,9.2617,9.2617,9.2617,9.2617,9.2617,9.2617,9.2617,9.2617,9.2617,9.2617,9.2617,9.2617,9.2617,9.2617,9.2617,9.2617,9.2617,9.2617,9.2617,9.2617,9.2617,9.2617,9.2617,9.2617,9.2617,9.2617,9.2617,9.2617,9.2617,9.2617,9.2617,9.2617,9.2617,9.2617,9.2617,9.2617,9.2617,9.2617,9.2617,9.2617,9.2617,9.2617,5.7846,6.2109,6.6523,7.0312,7.3594,7.6367,7.8086,7.8789,7.918,7.9609,8.039,8.1133,8.1562,8.1992,8.2304,8.2304,8.2304,8.2304,8.2304,8.2304,8.2304,8.2304,8.2656,8.3086,8.3554,8.4765,8.5703,8.6172,8.6992,8.75,8.75,8.75,8.75,8.75,8.75,8.75,8.75,8.75,8.789,8.8711,8.9101,9.0,9.125,9.1289,9.1797,9.2617,9.2617,9.2617,9.2617,9.2617,9.2617,9.2617,9.2617,9.2617,9.2617,9.2617,9.2617,9.2617,9.2617,9.2617,9.2617,9.2617,9.2617,9.2617,9.2617,9.2617,9.2617,9.2617,9.2617,9.2617,9.2617,9.2617,9.2617,9.2617,9.2617,9.2617,9.2617,9.2617,9.2617,9.2617,9.2617,9.2617,9.2617,9.2617,9.2617,9.2617,9.2617,9.2617,9.2617,9.2617,9.2617,9.2617,9.2617,9.2617,9.2617,9.2617,9.2617,9.2617,9.2617,9.2617,9.2617,9.2617,9.2617,9.2617,9.2617,9.2617,9.2617,9.2617,9.2617,9.2617,9.2617,9.2617,6.0232,6.3983,6.7383,7.3164,7.5351,7.6562,7.832,7.9219,8.0,8.1015,8.1211,8.1445,8.2187,8.2304,8.2304,8.2304,8.2304,8.2304,8.2304,8.2304,8.2304,8.2304,8.3086,8.3672,8.3828,8.5273,8.625,8.6406,8.7109,8.75,8.75,8.75,8.75,8.75,8.75,8.75,8.75,8.7656,8.8125,8.8945,8.9961,9.1211,9.2578,9.1836,9.1914,9.2617,9.2617,9.2617,9.2617,9.2617,9.2617,9.2617,9.2617,9.2617,9.2617,9.2617,9.2617,9.2617,9.2617,9.2617,9.2617,9.2617,9.2617,9.2617,9.2617,9.2617,9.2617,9.2617,9.2617,9.2617,9.2617,9.2617,9.2617,9.2617,9.2617,9.2617,9.2617,9.2617,9.2617,9.2617,9.2617,9.2617,9.2617,9.2617,9.2617,9.2617,9.2617,9.2617,9.2617,9.2617,9.2617,9.2617,9.2617,9.2617,9.2617,9.2617,9.2617,9.2617,9.2617,9.2617,9.2617,9.2617,9.2617,9.2617,9.2617,9.2617,9.2617,9.2617,9.2617,9.2617,9.2617,9.2617,5.3297,6.0578,6.8789,7.3437,7.582,7.7461,7.914,7.9609,8.0156,8.1797,8.2148,8.2148,8.2265,8.2304,8.2304,8.2304,8.2304,8.2304,8.2304,8.2304,8.2304,8.2304,8.3086,8.3906,8.4648,8.5625,8.6523,8.7265,8.7422,8.75,8.75,8.75,8.75,8.75,8.75,8.75,8.75,8.8203,8.8984,8.9844,9.1484,9.2383,9.2617,9.2461,9.25,9.2617,9.2617,9.2617,9.2617,9.2617,9.2617,9.2617,9.2617,9.2617,9.2617,9.2617,9.2617,9.2617,9.2617,9.2617,9.2617,9.2617,9.2617,9.2617,9.2617,9.2617,9.2617,9.2617,9.2617,9.2617,9.2617,9.2617,9.2617,9.2617,9.2617,9.2617,9.2617,9.2617,9.2617,9.2617,9.2617,9.2617,9.2617,9.2617,9.2617,9.2617,9.2617,9.2617,9.2617,9.2617,9.2617,9.2617,9.2617,9.2617,9.2617,9.2617,9.2617,9.2617,9.2617,9.2617,9.2617,9.2617,9.2617,9.2617,9.2617,9.2617,9.2617,9.2617,9.2617,9.2617,9.2617,9.2617,5.5761,6.2546,6.9002,7.3931,7.6084,7.7461,7.914,7.9609,8.0195,8.1953,8.2304,8.2304,8.2304,8.2304,8.2304,8.2304,8.2304,8.2304,8.2304,8.2304,8.2304,8.2304,8.3515,8.4492,8.4844,8.6133,8.7109,8.7461,8.75,8.75,8.75,8.75,8.75,8.75,8.75,8.7734,8.8164,8.8515,8.9375,9.0742,9.1992,9.2617,9.2617,9.2617,9.2617,9.2617,9.2617,9.2617,9.2617,9.2617,9.2617,9.2617,9.2617,9.2617,9.2617,9.2617,9.2617,9.2617,9.2617,9.2617,9.2617,9.2617,9.2617,9.2617,9.2617,9.2617,9.2617,9.2617,9.2617,9.2617,9.2617,9.2617,9.2617,9.2617,9.2617,9.2617,9.2617,9.2617,9.2617,9.2617,9.2617,9.2617,9.2617,9.2617,9.2617,9.2617,9.2617,9.2617,9.2617,9.2617,9.2617,9.2617,9.2617,9.2617,9.2617,9.2617,9.2617,9.2617,9.2617,9.2617,9.2617,9.2617,9.2617,9.2617,9.2617,9.2617,9.2617,9.2617,9.2617,9.2617,9.2617,9.2617,5.6708,6.1911,6.6157,7.2095,7.4769,7.6536,7.8801,7.9639,8.036,8.1847,8.2168,8.2168,8.2168,8.2221,8.2304,8.2304,8.2304,8.2304,8.2304,8.2304,8.2383,8.2617,8.3984,8.5,8.5195,8.6601,8.75,8.75,8.75,8.75,8.75,8.75,8.75,8.75,8.75,8.789,8.8672,8.914,9.0117,9.164,9.2304,9.2617,9.2617,9.2617,9.2617,9.2617,9.2617,9.2617,9.2617,9.2617,9.2617,9.2617,9.2617,9.2617,9.2617,9.2617,9.2617,9.2617,9.2617,9.2617,9.2617,9.2617,9.2617,9.2617,9.2617,9.2617,9.2617,9.2617,9.2617,9.2617,9.2617,9.2617,9.2617,9.2617,9.2617,9.2617,9.2617,9.2617,9.2617,9.2617,9.2617,9.2617,9.2617,9.2617,9.2617,9.2617,9.2617,9.2617,9.2617,9.2617,9.2617,9.2617,9.2617,9.2617,9.2617,9.2617,9.2617,9.2617,9.2617,9.2617,9.2617,9.2617,9.2617,9.2617,9.2617,9.2617,9.2617,9.2617,9.2617,9.2617,9.2617,9.2617,5.1177,5.4622,5.8467,6.6204,7.071,7.4333,7.8215,7.9919,8.0833,8.1593,8.171,8.171,8.171,8.2053,8.2304,8.2304,8.2304,8.2304,8.2304,8.2304,8.2617,8.3437,8.4336,8.5234,8.6054,8.6953,8.75,8.75,8.75,8.75,8.75,8.75,8.75,8.75,8.75,8.789,8.8672,9.0351,9.164,9.2539,9.2578,9.2617,9.2617,9.2617,9.2617,9.2617,9.2617,9.2617,9.2617,9.2617,9.2617,9.2617,9.2617,9.2617,9.2617,9.2617,9.2617,9.2617,9.2617,9.2617,9.2617,9.2617,9.2617,9.2617,9.2617,9.2617,9.2617,9.2617,9.2617,9.2617,9.2617,9.2617,9.2617,9.2617,9.2617,9.2617,9.2617,9.2617,9.2617,9.2617,9.2617,9.2617,9.2617,9.2617,9.2617,9.2617,9.2617,9.2617,9.2617,9.2617,9.2617,9.2617,9.2617,9.2617,9.2617,9.2617,9.2617,9.2617,9.2617,9.2617,9.2617,9.2617,9.2617,9.2617,9.2617,9.2617,9.2617,9.2617,9.2617,9.2617,9.2617,9.2617,5.0636,5.3181,5.5962,6.3253,6.8125,7.1937,7.4984,7.8181,8.0731,8.1543,8.171,8.171,8.171,8.1933,8.2109,8.2109,8.2226,8.2304,8.2304,8.2773,8.3242,8.3554,8.4844,8.5859,8.6172,8.6992,8.75,8.75,8.75,8.75,8.75,8.75,8.75,8.75,8.8008,8.8945,9.0351,9.1523,9.2304,9.2617,9.2617,9.2617,9.2617,9.2617,9.2617,9.2617,9.2617,9.2617,9.2617,9.2617,9.2617,9.2617,9.2617,9.2617,9.2617,9.2617,9.2617,9.2617,9.2617,9.2617,9.2617,9.2617,9.2617,9.2617,9.2617,9.2617,9.2617,9.2617,9.2617,9.2617,9.2617,9.2617,9.2617,9.2617,9.2617,9.2617,9.2617,9.2617,9.2617,9.2617,9.2617,9.2617,9.2617,9.2617,9.2617,9.2617,9.2617,9.2617,9.2617,9.2617,9.2617,9.2617,9.2617,9.2617,9.2617,9.2617,9.2617,9.2617,9.2617,9.2617,9.2617,9.2617,9.2617,9.2617,9.2617,9.2617,9.2617,9.2617,9.2617,9.2617,9.2617,9.2617,4.8386,5.0508,5.3069,5.9733,6.382,6.759,7.2886,7.621,7.8784,8.1016,8.1477,8.1477,8.1477,8.164,8.1802,8.187,8.1998,8.2115,8.2115,8.2852,8.353,8.3906,8.5195,8.6211,8.6601,8.7148,8.75,8.75,8.75,8.75,8.75,8.75,8.7617,8.789,8.8984,9.0117,9.1289,9.2148,9.2617,9.2617,9.2617,9.2617,9.2617,9.2617,9.2617,9.2617,9.2617,9.2617,9.2617,9.2617,9.2617,9.2617,9.2617,9.2617,9.2617,9.2617,9.2617,9.2617,9.2617,9.2617,9.2617,9.2617,9.2617,9.2617,9.2617,9.2617,9.2617,9.2617,9.2617,9.2617,9.2617,9.2617,9.2617,9.2617,9.2617,9.2617,9.2617,9.2617,9.2617,9.2617,9.2617,9.2617,9.2617,9.2617,9.2617,9.2617,9.2489,9.2378,9.2417,9.2381,9.2384,9.2424,9.2424,9.2424,9.2384,9.2494,9.2539,9.2422,9.2539,9.2617,9.2617,9.2617,9.2617,9.2617,9.2617,9.2617,9.2617,9.2617,9.2617,9.2617,9.2617,9.2617,0.0,0.0,0.0,5.528,5.7615,6.1241,7.1849,7.385,7.4917,7.9862,8.09,8.0939,8.1054,8.1246,8.1473,8.1636,8.1703,8.1703,8.1703,8.2465,8.3416,8.4446,8.5311,8.625,8.7382,8.7461,8.75,8.75,8.75,8.75,8.75,8.75,8.789,8.8711,9.039,9.1289,9.1328,9.2187,9.2617,9.2617,9.2617,9.2617,9.2617,9.2617,9.2617,9.2617,9.2617,9.2617,9.2617,9.2617,9.2617,9.2617,9.2617,9.2617,9.2617,9.2617,9.2617,9.2617,9.2617,9.2617,9.2617,9.2617,9.2617,9.2617,9.2617,9.2617,9.2617,9.2617,9.2617,9.2617,9.2617,9.2617,9.2617,9.2617,9.2617,9.2617,9.2617,9.2617,9.2617,9.2617,9.2617,9.2617,9.2617,9.2617,9.2617,9.2617,9.219,9.1937,9.2091,9.1979,9.1935,9.2052,9.2091,9.2052,9.1897,9.2319,9.2421,9.2109,9.2422,9.2578,9.2617,9.2617,9.2617,9.2617,9.2617,9.2617,9.2617,9.2617,9.2617,9.2617,9.2617,9.2617,4.4239,0.0,0.0,0.0,0.0,0.0,6.2474,6.5474,6.8924,7.5168,7.6015,7.6746,8.0439,8.1131,8.1223,8.1269,8.149,8.1683,8.1683,8.2444,8.3347,8.4195,8.5071,8.596,8.6896,8.7123,8.7226,8.7226,8.7383,8.75,8.75,8.75,8.8164,8.9609,9.0117,9.0976,9.2226,9.2461,9.2617,9.2617,9.2617,9.2617,9.2617,9.2617,9.2617,9.2617,9.2617,9.2617,9.2617,9.2617,9.2617,9.2617,9.2617,9.2617,9.2617,9.2617,9.2617,9.2617,9.2617,9.2617,9.2617,9.2617,9.2617,9.2617,9.2617,9.2617,9.2617,9.2617,9.2617,9.2617,9.2617,9.2617,9.2617,9.2617,9.2617,9.2617,9.2617,9.2617,9.2617,9.2617,9.2617,9.2617,9.2617,9.2617,9.2617,9.2617,9.1918,9.1518,9.1937,9.1908,9.1879,9.1801,9.1801,9.1801,9.1763,9.1887,9.2013,9.2108,9.2187,9.2344,9.2578,9.2617,9.2617,9.2617,9.2617,9.2617,9.2617,9.2617,9.2617,9.2617,9.2617,9.2617,4.4855,4.547,4.6624,4.8663,0.0,0.0,6.0589,6.3435,6.6936,7.513,7.6746,7.7592,8.0554,8.1093,8.1093,8.1093,8.1285,8.1439,8.1439,8.2201,8.2932,8.3516,8.4634,8.5623,8.6204,8.6687,8.6974,8.6964,8.7219,8.7383,8.75,8.7812,8.8437,8.9414,9.0156,9.1015,9.2031,9.2422,9.2617,9.2617,9.2617,9.2617,9.2617,9.2617,9.2617,9.2617,9.2617,9.2617,9.2617,9.2617,9.2617,9.2617,9.2617,9.2617,9.2617,9.2617,9.2617,9.2617,9.2617,9.2617,9.2617,9.2617,9.2617,9.2617,9.2617,9.2617,9.2617,9.2617,9.2617,9.2617,9.2617,9.2617,9.2617,9.2617,9.2617,9.2617,9.2617,9.2617,9.2617,9.2617,9.2617,9.2617,9.2617,9.2617,9.2486,9.2068,9.1554,9.1287,9.1556,9.1595,9.1556,9.1479,9.1479,9.1479,9.1479,9.1479,9.1552,9.1724,9.196,9.2187,9.2383,9.2539,9.2617,9.2617,9.2617,9.2617,9.2617,9.2617,9.2617,9.2617,9.2617,9.2617,4.6124,4.6701,4.7932,4.9933,4.951,0.0,6.1589,6.3551,6.5897,7.5438,7.8015,7.8746,7.9323,7.9554,7.9669,7.9554,8.0092,8.0669,8.1054,8.1708,8.2285,8.2624,8.3978,8.5022,8.5368,8.6132,8.6674,8.6749,8.6971,8.7226,8.75,8.8164,8.8594,8.8711,9.0312,9.1211,9.1289,9.2148,9.2617,9.2617,9.2617,9.2617,9.2617,9.2617,9.2617,9.2617,9.2617,9.2617,9.2617,9.2617,9.2617,9.2617,9.2617,9.2617,9.2617,9.2617,9.2617,9.2617,9.2617,9.2617,9.2617,9.2617,9.2617,9.2617,9.2617,9.2617,9.2617,9.2617,9.2617,9.2617,9.2617,9.2617,9.2617,9.2617,9.2617,9.2617,9.2617,9.2617,9.2617,9.2617,9.2617,9.2616,9.2603,9.2599,9.2284,9.1329,9.121,9.121,9.121,9.121,9.121,9.121,9.121,9.121,9.121,9.121,9.121,9.121,9.1724,9.2013,9.2091,9.2365,9.2521,9.2521,9.2537,9.2578,9.2617,9.2617,9.2617,9.2617,9.2617,9.2617,4.9586,4.9779,5.0548,4.9009,5.0433,0.0,5.1664,5.3049,5.5934,6.1358,6.2627,6.4012,6.809,6.9975,7.0667,6.9937,7.386,7.7977,8.0708,8.1246,8.1593,8.2285,8.267,8.3439,8.4901,8.5324,8.5812,8.6538,8.688,8.7226,8.75,8.7656,8.8047,8.8672,8.9726,9.0586,9.1289,9.2148,9.2617,9.2617,9.2617,9.2617,9.2617,9.2617,9.2617,9.2617,9.2617,9.2617,9.2617,9.2617,9.2617,9.2617,9.2617,9.2617,9.2617,9.2617,9.2617,9.2617,9.2617,9.2617,9.2617,9.2617,9.2617,9.2617,9.2617,9.2617,9.2617,9.2617,9.2617,9.2617,9.2617,9.2617,9.2617,9.2617,9.2617,9.2617,9.2617,9.2617,9.2617,9.2617,9.2617,9.2613,9.2625,9.2605,9.2286,9.1356,9.121,9.121,9.121,9.121,9.121,9.121,9.121,9.121,9.121,9.121,9.121,9.121,9.1307,9.1561,9.1909,9.2102,9.2218,9.2218,9.2237,9.2383,9.2617,9.2617,9.2617,9.2617,9.2617,9.2617,5.1087,5.0664,5.1202,5.0741,5.1318,0.0,0.0,5.351,5.5511,6.1473,6.1666,6.1973,6.5782,6.6513,6.6628,6.7051,7.1398,7.4899,7.5361,7.8707,8.1246,8.1631,8.2054,8.2631,8.3516,8.4478,8.5478,8.644,8.669,8.6956,8.7265,8.7304,8.7539,8.8086,8.9336,9.0,9.0,9.1719,9.2383,9.1953,9.2383,9.2617,9.2617,9.2617,9.2617,9.2617,9.2617,9.2617,9.2617,9.2617,9.2617,9.2617,9.2617,9.2617,9.2617,9.2617,9.2617,9.2617,9.2617,9.2617,9.2617,9.2617,9.2617,9.2617,9.2617,9.2617,9.2617,9.2617,9.2617,9.2617,9.2617,9.2617,9.2617,9.2617,9.2617,9.2617,9.2617,9.2617,9.2447,9.1997,9.2265,9.2615,9.2608,9.2207,9.171,9.1287,9.121,9.121,9.121,9.121,9.121,9.121,9.121,9.121,9.121,9.121,9.121,9.121,9.121,9.1325,9.1518,9.1595,9.1787,9.2091,9.2144,9.2304,9.2617,9.2617,9.2617,9.2617,9.2617,9.2617,5.301,5.2279,5.2741,5.3126,5.2779,5.3049,0.0,0.0,0.0,6.2281,6.2089,6.1512,6.3551,6.2974,6.2551,6.3743,6.7936,7.0283,6.8052,7.3899,7.8515,7.8861,8.0785,8.1862,8.1362,8.2593,8.4286,8.6324,8.5601,8.5621,8.6971,8.7063,8.7187,8.7422,8.8945,8.9414,8.8711,9.1133,9.1992,9.1328,9.2187,9.2617,9.2617,9.2617,9.2617,9.2617,9.2617,9.2617,9.2617,9.2617,9.2617,9.2617,9.2617,9.2617,9.2617,9.2617,9.2617,9.2617,9.2617,9.2617,9.2617,9.2617,9.2617,9.2617,9.2617,9.2617,9.2617,9.2617,9.2617,9.2617,9.2617,9.2617,9.2617,9.2617,9.2564,9.2489,9.2489,9.2411,9.2093,9.1322,9.1787,9.2322,9.2322,9.1672,9.121,9.121,9.121,9.121,9.121,9.121,9.121,9.121,9.121,9.121,9.121,9.121,9.121,9.121,9.121,9.121,9.121,9.121,9.1441,9.1937,9.191,9.2099,9.245,9.2533,9.2617,9.2617,9.2617,9.2617,5.8011,5.7934,5.8588,5.428,5.5857,5.6703,4.9779,0.0,5.2856,5.0702,0.0,5.2202,5.251,0.0,0.0,5.2626,5.8011,6.1858,6.0819,6.5282,6.9244,7.0821,7.7053,8.0362,7.8092,7.8054,8.0477,8.6055,8.2298,8.1855,8.6568,8.7008,8.7109,8.7148,8.8242,8.8789,8.8711,9.0547,9.1406,9.1328,9.2187,9.2617,9.2617,9.2617,9.2617,9.2617,9.2617,9.2617,9.2617,9.2617,9.2617,9.2617,9.2617,9.2617,9.2617,9.2617,9.2617,9.2617,9.2617,9.2617,9.2617,9.2617,9.2617,9.2617,9.2617,9.2617,9.2617,9.2617,9.2617,9.2617,9.2617,9.2617,9.2617,9.2617,9.237,9.2157,9.2157,9.174,9.1329,9.1206,9.1287,9.1364,9.1364,9.1287,9.121,9.121,9.121,9.121,9.121,9.121,9.121,9.121,9.121,9.121,9.121,9.121,9.121,9.121,9.121,9.121,9.121,9.121,9.1248,9.1287,9.1297,9.147,9.1778,9.2344,9.2617,9.2617,9.2617,9.2617,5.8319,5.9204,6.055,5.6434,5.7126,5.7242,5.1202,5.0048,5.024,5.0317,0.0,0.0,0.0,0.0,0.0,0.0,5.5126,5.778,5.5434,6.1204,6.6474,6.8667,7.1321,7.3899,7.6322,7.6553,7.9054,8.5132,8.126,8.0991,8.6324,8.6698,8.6833,8.6912,8.7955,8.8281,8.7773,9.0117,9.1054,9.0547,9.1953,9.2617,9.2617,9.2617,9.2617,9.2617,9.2617,9.2617,9.2617,9.2617,9.2617,9.2617,9.2617,9.2617,9.2617,9.2617,9.2617,9.2617,9.2617,9.2617,9.2617,9.2617,9.2617,9.2617,9.2617,9.2617,9.2617,9.2617,9.2617,9.2617,9.2617,9.2617,9.2564,9.236,9.2208,9.2014,9.1633,9.1364,9.121,9.121,9.121,9.121,9.121,9.121,9.121,9.121,9.121,9.121,9.121,9.121,9.121,9.121,9.121,9.121,9.121,9.121,9.121,9.121,9.121,9.121,9.121,9.121,9.121,9.121,9.121,9.1287,9.1402,9.1863,9.2143,9.2188,9.2489,9.2617,6.055,6.1396,6.232,5.7511,5.6973,5.6395,5.1895,5.0164,4.9894,5.1279,5.101,0.0,0.0,0.0,5.0048,5.0587,0.0,5.4472,5.1318,5.6395,6.1473,6.4282,6.5474,6.8205,7.3745,7.2783,7.4976,8.2593,7.8746,7.9092,8.6017,8.644,8.6568,8.6704,8.7559,8.7726,8.7109,8.9648,9.0625,9.0039,9.1758,9.2617,9.2617,9.2617,9.2617,9.2617,9.2617,9.2617,9.2617,9.2617,9.2617,9.2617,9.2617,9.2617,9.2617,9.2617,9.2617,9.2617,9.2617,9.2617,9.2617,9.2617,9.2617,9.2617,9.2617,9.2617,9.2617,9.2617,9.2617,9.2617,9.2617,9.2617,9.2541,9.2209,9.2091,9.1937,9.1402,9.1248,9.121,9.121,9.121,9.121,9.121,9.121,9.121,9.121,9.121,9.121,9.121,9.121,9.121,9.121,9.121,9.121,9.121,9.121,9.121,9.121,9.121,9.121,9.121,9.121,9.121,9.121,9.121,9.121,9.121,9.1518,9.1732,9.1795,9.2287,9.25,6.7205,6.6244,6.4936,5.6665,5.5203,5.4472,4.9394,5.0741,5.2587,5.1048,5.3933,5.6242,5.4703,5.4357,5.351,5.1087,5.1471,0.0,0.0,4.9163,5.1164,5.4549,5.9973,6.5128,6.9475,6.4666,6.6128,7.7823,7.3283,7.4707,8.5555,8.6363,8.6511,8.6544,8.6923,8.7131,8.7109,8.9062,9.0039,9.0039,9.1758,9.2617,9.2617,9.2617,9.2617,9.2617,9.2617,9.2617,9.2617,9.2617,9.2617,9.2617,9.2617,9.2617,9.2617,9.2617,9.2617,9.2617,9.2617,9.2617,9.2617,9.2617,9.2617,9.2617,9.2617,9.2617,9.2617,9.2617,9.2617,9.2617,9.2617,9.2617,9.2541,9.2248,9.2053,9.1825,9.1556,9.1325,9.121,9.121,9.121,9.121,9.121,9.121,9.121,9.121,9.121,9.121,9.121,9.121,9.121,9.121,9.121,9.121,9.121,9.121,9.121,9.121,9.121,9.121,9.121,9.121,9.121,9.121,9.121,9.121,9.121,9.1518,9.1668,9.1544,9.1972,9.2226,6.9744,7.1052,7.0937,6.2435,6.0973,5.9665,5.2279,5.1972,5.2895,5.1741,5.4434,5.6626,5.5511,5.4857,5.3857,5.1818,5.1279,5.0202,0.0,4.8009,4.9163,5.0933,5.6857,6.1166,6.2089,6.4397,6.8667,7.5476,7.5207,7.8054,8.5709,8.6209,8.6247,8.6247,8.6517,8.6699,8.6685,8.8758,8.9804,8.9804,9.1719,9.2617,9.2617,9.2617,9.2617,9.2617,9.2617,9.2617,9.2617,9.2617,9.2617,9.2617,9.2617,9.2617,9.2617,9.2617,9.2617,9.2617,9.2617,9.2617,9.2617,9.2617,9.2617,9.2617,9.2617,9.2617,9.2617,9.2617,9.2617,9.2617,9.2617,9.2468,9.227,9.2037,9.1823,9.1556,9.1364,9.1248,9.121,9.121,9.121,9.121,9.121,9.121,9.121,9.121,9.121,9.121,9.121,9.121,9.121,9.121,9.121,9.121,9.121,9.121,9.121,9.121,9.121,9.121,9.121,9.121,9.121,9.121,9.121,9.121,9.121,9.1325,9.1364,9.1287,9.1604,9.1895,7.3053,7.4322,7.4168,6.6551,6.5089,6.3512,5.5934,5.5549,5.6472,5.5318,5.7049,5.9204,6.0435,5.8011,5.5588,5.4741,5.2395,4.9702,0.0,4.7163,4.8009,4.8856,5.3587,5.7434,5.905,6.0973,6.5859,7.4938,7.4399,7.7323,8.567,8.6094,8.6094,8.6094,8.6363,8.6516,8.6481,8.8529,8.961,8.9726,9.1562,9.25,9.2617,9.2617,9.2617,9.2617,9.2617,9.2617,9.2617,9.2617,9.2617,9.2617,9.2617,9.2617,9.2617,9.2617,9.2617,9.2617,9.2617,9.2617,9.2617,9.2617,9.2617,9.2617,9.2617,9.2617,9.2617,9.2617,9.2617,9.2617,9.2617,9.2381,9.2151,9.1954,9.1707,9.1441,9.1248,9.121,9.121,9.121,9.121,9.121,9.121,9.121,9.121,9.121,9.121,9.121,9.121,9.121,9.121,9.121,9.121,9.121,9.121,9.121,9.121,9.121,9.121,9.121,9.121,9.121,9.121,9.121,9.121,9.121,9.121,9.121,9.121,9.121,9.1325,9.1577]},{"header":{"parameterUnit":"m.s-1","parameterCategory":1,"la1":30.6,"la2":29.2853,"lo1":-89.7004,"lo2":-87.6739,"dx":0.0162,"dy":0.0183,"nx":112,"ny":82,"refTime":"2022-12-15T18:00:00:Z","depth":0,"parameterNumber":3,"parameterNumberName":"V-component_of_WINDS"},"data":[0.0,0.0,0.0,0.0,0.0,0.0,0.0,0.0,0.0,0.0,0.0,0.0,0.0,0.0,0.0,0.0,0.0,0.0,0.0,0.0,0.0,0.0,0.0,0.0,0.0,0.0,0.0,0.0,0.0,0.0,0.0,0.0,0.0,0.0,0.0,0.0,0.0,0.0,0.0,0.0,0.0,0.0,0.0,0.0,0.0,0.0,0.0,0.0,0.0,0.0,0.0,0.0,0.0,0.0,0.0,0.0,0.0,0.0,0.0,0.0,0.0,0.0,0.0,0.0,0.0,0.0,0.0,0.0,0.0,0.0,0.0,0.0,0.0,0.0,0.0,0.0,0.0,0.0,0.0,0.0,0.0,0.0,0.0,0.0,0.0,0.0,0.0,0.0,0.0,0.0,-0.7387,-0.7699,-0.818,-0.8431,-0.8316,-0.8303,-0.7929,-0.7054,0.0,0.0,0.0,0.0,0.0,0.0,0.0,0.0,0.0,0.0,0.0,0.0,0.0,0.0,0.0,0.0,0.0,0.0,0.0,0.0,0.0,0.0,0.0,0.0,0.0,0.0,0.0,0.0,0.0,0.0,0.0,0.0,0.0,0.0,0.0,0.0,0.0,0.0,0.0,0.0,0.0,0.0,0.0,0.0,0.0,0.0,0.0,0.0,0.0,0.0,0.0,0.0,0.0,0.0,0.0,0.0,0.0,0.0,0.0,0.0,0.0,0.0,0.0,0.0,0.0,0.0,0.0,0.0,0.0,0.0,0.0,0.0,0.0,0.0,0.0,0.0,0.0,0.0,0.0,0.0,0.0,0.0,0.0,0.0,0.0,0.0,0.0,0.0,0.0,0.0,0.0,0.0,0.0,0.0,0.0,0.0,0.0,0.0,0.0,0.0,0.0,0.0,0.0,0.0,-0.7197,-0.8235,-0.8431,-0.8472,-0.8452,-0.8452,-0.8119,-0.7353,0.0,0.0,0.0,0.0,0.0,0.0,0.0,0.0,0.0,0.0,0.0,0.0,0.0,0.0,0.0,0.0,0.0,0.0,0.0,0.0,0.0,0.0,0.0,0.0,0.0,0.0,0.0,0.0,0.0,0.0,0.0,0.0,0.0,0.0,0.0,0.0,0.0,0.0,0.0,0.0,0.0,0.0,0.0,0.0,0.0,0.0,0.0,0.0,0.0,0.0,0.0,0.0,0.0,0.0,0.0,0.0,0.0,0.0,0.0,0.0,0.0,0.0,0.0,0.0,0.0,0.0,0.0,0.0,0.0,0.0,0.0,0.0,0.0,0.0,0.0,0.0,0.0,0.0,0.0,0.0,0.0,0.0,0.0,0.0,0.0,0.0,0.0,0.0,0.0,0.0,0.0,0.0,0.0,0.0,0.0,0.0,0.0,0.0,0.0,0.0,0.0,0.0,0.0,-0.7251,-0.776,-0.8635,-0.873,-0.8696,-0.8615,-0.8608,-0.8255,-0.7428,-0.6742,0.0,0.0,0.0,0.0,0.0,0.0,0.0,0.0,0.0,0.0,0.0,0.0,0.0,0.0,0.0,0.0,0.0,0.0,0.0,0.0,0.0,0.0,0.0,0.0,0.0,0.0,0.0,0.0,0.0,0.0,0.0,0.0,0.0,0.0,0.0,0.0,0.0,0.0,0.0,0.0,0.0,0.0,0.0,0.0,0.0,0.0,0.0,0.0,0.0,0.0,0.0,0.0,0.0,0.0,0.0,0.0,0.0,0.0,0.0,0.0,0.0,0.0,0.0,0.0,0.0,0.0,0.0,0.0,0.0,0.0,0.0,0.0,0.0,0.0,0.0,0.0,0.0,0.0,0.0,0.0,0.0,0.0,0.0,0.0,0.0,0.0,0.0,0.0,0.0,0.0,0.0,0.0,0.0,0.0,0.0,0.0,0.0,0.0,0.0,0.0,0.0,0.0,-0.8079,-0.8492,-0.8988,-0.9042,-0.8981,-0.8825,-0.8818,-0.8418,-0.7482,-0.6858,0.0,0.0,0.0,0.0,0.0,0.0,0.0,0.0,0.0,0.0,0.0,0.0,0.0,0.0,0.0,0.0,0.0,0.0,0.0,0.0,0.0,0.0,0.0,0.0,0.0,0.0,0.0,0.0,0.0,0.0,0.0,0.0,0.0,0.0,0.0,0.0,0.0,0.0,0.0,0.0,0.0,0.0,0.0,0.0,0.0,0.0,0.0,0.0,0.0,0.0,0.0,0.0,0.0,0.0,0.0,0.0,0.0,0.0,0.0,0.0,0.0,0.0,0.0,0.0,0.0,0.0,0.0,0.0,0.0,0.0,0.0,0.0,0.0,0.0,0.0,0.0,0.0,0.0,0.0,0.0,0.0,0.0,0.0,0.0,0.0,0.0,0.0,0.0,0.0,0.0,0.0,0.0,0.0,0.0,0.0,0.0,0.0,0.0,0.0,0.0,0.0,0.0,-0.8472,-0.9144,-0.9327,-0.9347,-0.9286,-0.9137,-0.9123,-0.8682,-0.7651,-0.7021,0.0,0.0,0.0,0.0,0.0,0.0,0.0,0.0,0.0,0.0,0.0,0.0,0.0,0.0,0.0,0.0,0.0,0.0,0.0,0.0,0.0,0.0,0.0,0.0,0.0,0.0,0.0,0.0,0.0,0.0,0.0,0.0,0.0,0.0,0.0,0.0,0.0,0.0,0.0,0.0,0.0,0.0,0.0,0.0,0.0,0.0,0.0,0.0,0.0,0.0,0.0,0.0,0.0,0.0,0.0,0.0,0.0,0.0,0.0,0.0,0.0,0.0,0.0,0.0,0.0,0.0,0.0,0.0,0.0,0.0,0.0,0.0,0.0,0.0,0.0,0.0,0.0,0.0,0.0,0.0,0.0,0.0,0.0,0.0,0.0,0.0,0.0,0.0,0.0,0.0,0.0,0.0,0.0,0.0,0.0,0.0,0.0,0.0,0.0,0.0,0.0,0.0,-0.835,-0.9008,-0.9347,-0.9381,-0.9361,-0.93,-0.9293,-0.8852,-0.7794,0.0,0.0,0.0,0.0,0.0,0.0,0.0,0.0,0.0,0.0,0.0,0.0,0.0,0.0,0.0,0.0,0.0,0.0,0.0,0.0,0.0,0.0,0.0,0.0,0.0,0.0,0.0,0.0,0.0,0.0,0.0,0.0,0.0,0.0,0.0,0.0,0.0,0.0,0.0,0.0,0.0,0.0,0.0,0.0,0.0,0.0,0.0,0.0,0.0,0.0,0.0,0.0,0.0,0.0,0.0,0.0,0.0,0.0,0.0,0.0,0.0,0.0,0.0,0.0,0.0,0.0,0.0,0.0,0.0,0.0,0.0,0.0,0.0,0.0,0.0,0.0,0.0,0.0,0.0,0.0,0.0,0.0,0.0,0.0,0.0,0.0,0.0,0.0,0.0,0.0,0.0,0.0,0.0,0.0,0.0,0.0,0.0,0.0,0.0,0.0,0.0,0.0,-0.7767,-0.8574,-0.9218,-0.9625,-0.9666,-0.9625,-0.953,-0.9517,-0.9028,-0.7882,0.0,0.0,0.0,0.0,0.0,0.0,0.0,0.0,0.0,0.0,0.0,0.0,0.0,0.0,0.0,0.0,0.0,0.0,0.0,0.0,0.0,0.0,0.0,0.0,0.0,0.0,0.0,0.0,0.0,0.0,0.0,0.0,0.0,0.0,0.0,0.0,0.0,0.0,0.0,0.0,0.0,0.0,0.0,0.0,0.0,0.0,0.0,0.0,0.0,0.0,0.0,0.0,0.0,0.0,0.0,0.0,0.0,0.0,0.0,0.0,0.0,0.0,0.0,0.0,0.0,0.0,0.0,0.0,0.0,0.0,0.0,0.0,0.0,0.0,0.0,0.0,0.0,0.0,0.0,0.0,0.0,0.0,0.0,0.0,0.0,0.0,0.0,0.0,0.0,0.0,0.0,0.0,0.0,0.0,0.0,0.0,0.0,0.0,0.0,0.0,0.0,0.0,-0.837,-0.9273,-0.9944,-1.0249,-1.0283,-1.0154,-0.9856,-0.9829,-0.9252,0.0,0.0,0.0,0.0,0.0,0.0,0.0,0.0,0.0,0.0,0.0,0.0,0.0,0.0,0.0,0.0,0.0,0.0,0.0,0.0,0.0,0.0,0.0,0.0,0.0,0.0,0.0,0.0,0.0,0.0,0.0,0.0,0.0,0.0,0.0,0.0,0.0,0.0,0.0,0.0,0.0,0.0,0.0,0.0,0.0,0.0,0.0,0.0,0.0,0.0,0.0,0.0,0.0,0.0,0.0,0.0,0.0,0.0,0.0,0.0,0.0,0.0,0.0,0.0,0.0,0.0,0.0,0.0,0.0,0.0,0.0,0.0,0.0,0.0,0.0,0.0,0.0,0.0,0.0,0.0,0.0,0.0,0.0,0.0,0.0,0.0,0.0,0.0,0.0,0.0,0.0,0.0,0.0,0.0,0.0,0.0,0.0,0.0,0.0,0.0,0.0,0.0,0.0,-0.8391,-0.9456,-1.0181,-1.027,-1.0283,-1.0243,-1.0154,-1.0148,-0.9571,-0.8221,0.0,0.0,0.0,0.0,0.0,0.0,0.0,0.0,0.0,0.0,0.0,0.0,0.0,0.0,0.0,0.0,0.0,0.0,0.0,0.0,0.0,0.0,0.0,0.0,0.0,0.0,0.0,0.0,0.0,0.0,0.0,0.0,0.0,0.0,0.0,0.0,0.0,0.0,0.0,0.0,0.0,0.0,0.0,0.0,0.0,0.0,0.0,0.0,0.0,0.0,0.0,0.0,0.0,0.0,0.0,0.0,0.0,0.0,0.0,0.0,0.0,0.0,0.0,0.0,0.0,0.0,0.0,0.0,0.0,0.0,0.0,0.0,0.0,0.0,0.0,0.0,0.0,0.0,0.0,0.0,0.0,0.0,0.0,0.0,0.0,0.0,0.0,0.0,0.0,0.0,0.0,0.0,0.0,0.0,0.0,0.0,0.0,0.0,0.0,0.0,0.0,0.0,-0.8581,-0.9659,-1.0385,-1.0446,-1.046,-1.0432,-1.0371,-1.0365,-0.989,-0.8784,0.0,0.0,0.0,0.0,0.0,0.0,0.0,0.0,0.0,0.0,0.0,0.0,0.0,0.0,0.0,0.0,0.0,0.0,0.0,0.0,0.0,0.0,0.0,0.0,0.0,0.0,0.0,0.0,0.0,0.0,0.0,0.0,0.0,0.0,0.0,0.0,0.0,0.0,0.0,0.0,0.0,0.0,0.0,0.0,0.0,0.0,0.0,0.0,0.0,0.0,0.0,0.0,0.0,0.0,0.0,0.0,0.0,0.0,0.0,0.0,0.0,0.0,0.0,0.0,0.0,0.0,0.0,0.0,0.0,0.0,0.0,0.0,0.0,0.0,0.0,0.0,0.0,0.0,0.0,0.0,0.0,0.0,0.0,0.0,0.0,0.0,0.0,0.0,0.0,0.0,0.0,0.0,0.0,0.0,0.0,0.0,0.0,0.0,0.0,0.0,0.0,0.0,-0.8866,-0.9869,-1.0568,-1.0704,-1.0717,-1.0663,-1.0527,-1.0514,-1.0195,-0.9449,0.0,0.0,0.0,0.0,0.0,0.0,0.0,0.0,0.0,0.0,0.0,0.0,0.0,0.0,0.0,0.0,0.0,0.0,0.0,0.0,0.0,0.0,0.0,0.0,0.0,0.0,0.0,0.0,0.0,0.0,0.0,0.0,0.0,0.0,0.0,0.0,0.0,0.0,0.0,0.0,0.0,0.0,0.0,0.0,0.0,0.0,0.0,0.0,0.0,0.0,0.0,0.0,0.0,0.0,0.0,0.0,0.0,0.0,0.0,0.0,-0.6403,-0.5813,0.0,0.0,0.0,0.0,0.0,0.0,0.0,0.0,0.0,0.0,0.0,0.0,0.0,0.0,0.0,0.0,0.0,0.0,0.0,0.0,0.0,0.0,0.0,0.0,0.0,0.0,0.0,0.0,0.0,0.0,0.0,0.0,0.0,0.0,0.0,0.0,0.0,0.0,0.0,0.0,-0.9028,-1.0025,-1.0683,-1.0717,-1.0717,-1.0704,-1.0677,-1.067,-1.0351,-0.9605,-0.9266,0.0,0.0,0.0,0.0,0.0,0.0,0.0,0.0,0.0,0.0,0.0,0.0,0.0,0.0,0.0,0.0,0.0,0.0,0.0,0.0,0.0,0.0,0.0,0.0,0.0,0.0,0.0,0.0,0.0,0.0,0.0,0.0,0.0,0.0,0.0,0.0,0.0,0.0,0.0,0.0,0.0,0.0,0.0,0.0,0.0,0.0,0.0,0.0,0.0,0.0,0.0,0.0,0.0,0.0,0.0,0.0,0.0,0.0,0.0,-0.7048,-0.662,0.0,0.0,0.0,0.0,0.0,0.0,0.0,0.0,0.0,0.0,0.0,0.0,0.0,0.0,0.0,0.0,0.0,0.0,0.0,0.0,0.0,0.0,0.0,0.0,0.0,0.0,0.0,0.0,0.0,0.0,0.0,0.0,0.0,0.0,0.0,0.0,0.0,0.0,0.0,0.0,-0.9083,-1.0073,-1.0717,-1.0717,-1.0717,-1.0717,-1.0717,-1.0717,-1.0555,-1.0168,-0.9734,0.0,0.0,0.0,0.0,0.0,0.0,0.0,0.0,0.0,0.0,0.0,0.0,0.0,0.0,0.0,0.0,0.0,0.0,0.0,0.0,0.0,0.0,0.0,0.0,0.0,0.0,0.0,0.0,0.0,0.0,0.0,0.0,0.0,0.0,0.0,0.0,0.0,0.0,0.0,0.0,0.0,0.0,0.0,0.0,0.0,0.0,0.0,0.0,0.0,0.0,0.0,0.0,0.0,-0.7495,-0.7678,-0.7957,-0.8072,-0.8343,-0.8669,-0.7807,-0.7638,-0.7902,-0.7014,0.0,0.0,0.0,0.0,0.0,0.0,0.0,0.0,0.0,0.0,0.0,0.0,0.0,0.0,0.0,0.0,0.0,0.0,0.0,0.0,0.0,0.0,-0.8201,-0.8201,-0.8696,-0.8899,-0.7902,0.0,0.0,0.0,0.0,0.0,0.0,0.0,0.0,0.0,0.0,0.0,-0.9286,-1.0195,-1.0799,-1.0799,-1.0799,-1.0799,-1.0799,-1.0799,-1.0799,-1.0799,-1.0222,-0.9768,0.0,0.0,0.0,0.0,0.0,0.0,0.0,0.0,0.0,0.0,0.0,0.0,0.0,0.0,0.0,0.0,0.0,0.0,0.0,0.0,0.0,0.0,0.0,0.0,0.0,0.0,0.0,0.0,0.0,0.0,0.0,0.0,-0.6125,-0.6166,0.0,0.0,0.0,0.0,0.0,0.0,0.0,0.0,0.0,0.0,0.0,0.0,0.0,-0.7346,-0.7658,-0.8052,-0.8336,-0.8506,-0.8899,-0.9178,-0.9347,-0.9367,-0.9469,-0.9639,-0.9503,0.0,-0.8574,-0.8303,0.0,0.0,0.0,0.0,0.0,0.0,0.0,0.0,0.0,0.0,0.0,0.0,0.0,0.0,0.0,0.0,0.0,0.0,0.0,0.0,0.0,0.0,-0.9754,-0.9754,-0.993,-1.0059,-0.9903,-0.8947,-0.8018,-0.7672,-0.7712,-0.7611,0.0,0.0,0.0,0.0,0.0,0.0,-1.0039,-1.0704,-1.1104,-1.1104,-1.1104,-1.1104,-1.1104,-1.1104,-1.1104,-1.1104,-1.1016,-1.0656,-0.9992,-0.9639,0.0,0.0,0.0,0.0,0.0,0.0,0.0,0.0,0.0,0.0,0.0,0.0,0.0,0.0,0.0,0.0,0.0,0.0,0.0,0.0,0.0,0.0,0.0,0.0,0.0,0.0,0.0,0.0,0.0,-0.5806,-0.6125,-0.6471,-0.6112,-0.5772,0.0,0.0,0.0,0.0,0.0,0.0,0.0,0.0,0.0,-0.7882,-0.8126,-0.8438,-0.8818,-0.9096,-0.9313,-0.9469,-0.9659,-0.9836,-0.9985,-0.9985,-1.0019,-1.008,-1.008,-0.9897,-0.9557,-0.9062,-0.8547,-0.7932,0.0,0.0,0.0,0.0,-0.7757,-0.7872,-0.8295,-0.8343,-0.8255,-0.818,0.0,0.0,0.0,0.0,0.0,0.0,0.0,-0.8646,-0.9525,-0.9801,-0.9964,-1.0141,-1.029,-1.0399,-1.0399,-1.0005,-0.9456,-0.8818,-0.8676,-0.8425,-0.7651,-0.7984,0.0,0.0,0.0,-0.9937,-1.0344,-1.0846,-1.1165,-1.1165,-1.1165,-1.1165,-1.1165,-1.1165,-1.1165,-1.1165,-1.1165,-1.1016,-1.069,-1.0236,-0.9689,0.0,0.0,0.0,0.0,0.0,0.0,0.0,0.0,0.0,0.0,0.0,0.0,0.0,0.0,0.0,0.0,0.0,0.0,0.0,0.0,0.0,0.0,0.0,0.0,0.0,0.0,0.0,0.0,-0.622,-0.6485,-0.6932,-0.6688,-0.6383,0.0,0.0,0.0,0.0,0.0,0.0,-0.7923,-0.8153,-0.8459,-0.8872,-0.9144,-0.9442,-0.9774,-0.9883,-0.9998,-1.0107,-1.0107,-1.0195,-1.0344,-1.0344,-1.0365,-1.0399,-1.0412,-1.0412,-1.0351,-0.9707,-0.9428,-0.9202,-0.8974,-0.8808,-0.8749,-0.8876,-0.8932,-0.8932,-0.9497,-0.9537,-0.9422,-0.932,-0.9222,-0.9036,-0.8612,0.0,0.0,0.0,0.0,-0.9277,-1.0235,-1.0271,-1.012,-1.0385,-1.0534,-1.0616,-1.0656,-1.0724,-1.0582,-0.991,-0.9686,-0.9374,-0.8628,-0.896,0.0,-0.9083,-0.9849,-1.0548,-1.0799,-1.1158,-1.1389,-1.1389,-1.1389,-1.1389,-1.1389,-1.1389,-1.1389,-1.1389,-1.1389,-1.1355,-1.128,-1.086,-1.0628,-1.0558,0.0,0.0,0.0,0.0,0.0,0.0,0.0,0.0,0.0,0.0,0.0,0.0,0.0,0.0,0.0,0.0,0.0,0.0,0.0,0.0,0.0,0.0,0.0,0.0,0.0,0.0,0.0,0.0,0.0,-0.7753,-0.7733,0.0,0.0,0.0,0.0,-0.7719,-0.8038,-0.8404,-0.8845,-0.9286,-0.9659,-0.9964,-1.0127,-1.0222,-1.0249,-1.0256,-1.0263,-1.027,-1.027,-1.0358,-1.0397,-1.0397,-1.0471,-1.0731,-1.0632,-1.0625,-1.0704,-1.0365,-1.0232,-1.0324,-1.0303,-1.0379,-1.05,-1.0383,-1.0303,-1.0242,-1.0204,-1.0229,-1.0222,-1.0215,-1.0329,-1.0345,-1.023,-0.9945,0.0,0.0,-1.0257,-1.0086,-1.0541,-1.0663,-1.0717,-1.0873,-1.0921,-1.0962,-1.1097,-1.1029,-1.0921,-1.088,-1.0867,-1.0751,-1.0412,0.0,-1.046,-1.0588,-1.0785,-1.1118,-1.1687,-1.1911,-1.2013,-1.2013,-1.2013,-1.2013,-1.2013,-1.2013,-1.2013,-1.2013,-1.2013,-1.1891,-1.1606,-1.1565,-1.1138,-1.0397,-1.0486,0.0,0.0,0.0,0.0,0.0,0.0,0.0,0.0,0.0,0.0,0.0,0.0,0.0,0.0,0.0,0.0,0.0,0.0,0.0,0.0,0.0,0.0,0.0,0.0,0.0,0.0,0.0,0.0,-0.7943,-0.8045,0.0,-0.7896,-0.8187,-0.8459,-0.8662,-0.9137,-0.953,-0.9788,-0.9951,-1.0086,-1.0195,-1.0358,-1.0317,-1.0317,-1.0431,-1.0616,-1.0622,-1.0585,-1.0525,-1.0584,-0.8183,-0.726,-0.7433,-0.968,-0.9394,-0.7287,-0.7215,-0.853,-1.0649,-1.0649,-1.0686,-1.0699,-1.0593,-1.0649,-1.0548,-1.0568,-1.0616,-1.0616,-1.0616,-1.061,-1.06,-1.0623,-1.0555,-1.0365,-1.067,-1.0638,-1.0699,-1.0859,-1.1023,-1.1016,-1.1077,-1.1084,-1.1097,-1.1151,-1.1199,-1.126,-1.1362,-1.1145,-1.088,-1.0677,-1.0962,-1.1172,-1.1029,-1.1382,-1.1742,-1.1952,-1.2026,-1.206,-1.206,-1.206,-1.206,-1.206,-1.206,-1.206,-1.206,-1.206,-1.2013,-1.1911,-1.1904,-1.1667,-1.1151,-1.1207,-0.9735,0.0,0.0,0.0,0.0,0.0,0.0,0.0,0.0,0.0,0.0,0.0,0.0,0.0,0.0,0.0,0.0,0.0,0.0,0.0,0.0,0.0,0.0,0.0,0.0,0.0,-0.7597,-0.8079,-0.8174,-0.8506,-0.8662,-0.8506,-0.8988,-0.9374,-0.9523,-0.9944,-1.0249,-1.0365,-1.0412,-1.0466,-1.0397,-1.0511,-0.9915,-0.8728,-0.8822,-0.8872,-0.8872,-0.8955,-0.956,-1.0567,-0.8238,-0.5873,-0.3769,-0.6016,-0.7161,-0.7047,-0.5887,-0.6831,-0.8872,-0.8911,-0.8872,-0.8872,-0.8872,-0.8872,-0.8872,-0.8872,-0.8872,-0.8872,-0.8872,-0.8872,-0.8889,-0.8971,-0.8856,-0.8872,-0.8943,-0.8986,-0.9439,-1.0728,-1.1174,-1.1341,-1.1261,-1.1261,-1.1402,-1.147,-1.1552,-1.1647,-1.1748,-1.1484,-1.1233,-1.1179,-1.1504,-1.1701,-1.1497,-1.1891,-1.221,-1.221,-1.2305,-1.2366,-1.2366,-1.2366,-1.2366,-1.2366,-1.2223,-1.2203,-1.2359,-1.2223,-1.2162,-1.221,-1.2223,-1.201,-1.1708,-1.164,-0.9528,-0.5442,0.0,0.0,0.0,0.0,0.0,0.0,0.0,0.0,0.0,0.0,0.0,0.0,0.0,0.0,0.0,0.0,0.0,0.0,0.0,0.0,0.0,0.0,0.0,-0.7672,-0.8133,-0.8513,-0.852,-0.9171,-0.9564,-0.9422,-0.9808,-1.0127,-1.0276,-1.0419,-1.0514,-1.0424,-1.0551,-1.0571,-1.0477,-1.0626,-0.8999,-0.5583,-0.5305,-0.5166,-0.5166,-0.5172,-0.7013,-1.0321,-1.0321,-0.6613,0.0,0.0,-0.411,-1.037,-0.6807,-0.5295,-0.5256,-0.5232,-0.5169,-0.5169,-0.5169,-0.5169,-0.5169,-0.5169,-0.5169,-0.5169,-0.5169,-0.5169,-0.5169,-0.5172,-0.5172,-0.5172,-0.5175,-0.5225,-0.6136,-0.9894,-1.1142,-1.1418,-1.1295,-1.1443,-1.1596,-1.1925,-1.1951,-1.2088,-1.2088,-1.1965,-1.1911,-1.2054,-1.2074,-1.2081,-1.2088,-1.2332,0.0,-1.2522,-1.2779,-1.2963,-1.2949,-1.2949,-1.2949,-1.2949,-1.2549,-1.2488,-1.2935,-1.2556,-1.2372,-1.2508,-1.2585,-1.2212,-1.1761,-1.1635,-0.949,-0.5185,0.0,0.0,0.0,0.0,0.0,0.0,0.0,0.0,0.0,0.0,0.0,0.0,0.0,0.0,0.0,0.0,0.0,0.0,0.0,0.0,0.0,-0.8126,-0.8459,-0.8269,-0.8757,-0.9211,-0.9429,-0.9639,-0.9836,-1.0019,-1.0236,-1.0385,-1.0432,-1.0588,-1.0598,-1.0584,-0.8293,-0.6851,-0.681,-0.9365,-1.0246,-0.9282,-0.4102,-0.1421,-0.1421,-0.1449,-0.2047,-0.2929,-0.2958,-0.1929,0.0,0.0,-0.402,-1.0202,-0.4015,-0.149,-0.1496,-0.1442,-0.1429,-0.1441,-0.1441,-0.1441,-0.1441,-0.1441,-0.1441,-0.1441,-0.1441,-0.1441,-0.1444,-0.1458,-0.1461,-0.1464,-0.1478,-0.1483,-0.1782,-0.2823,-0.5209,-0.822,-1.1158,-0.9543,-0.8365,-1.1637,-1.2139,-1.2135,-1.2427,-1.2331,-1.2318,-1.242,-1.2379,-1.2461,-1.2554,-1.2655,-1.2715,-1.2895,-1.2969,-1.2929,-1.2691,-1.2664,-1.2507,-1.2501,-1.2373,-1.244,-1.2475,-1.2695,-1.2793,-1.2834,-1.2883,-1.1262,-0.7942,-1.0315,-0.8329,0.0,0.0,0.0,0.0,0.0,0.0,0.0,0.0,0.0,0.0,0.0,0.0,0.0,0.0,0.0,0.0,0.0,0.0,0.0,0.0,0.0,0.0,-0.8804,-0.9144,-0.9055,-0.934,-0.9652,-0.989,-1.0025,-1.0175,-1.0351,-1.0514,-1.0629,-1.0558,-1.0672,-1.067,-1.0685,-0.8735,-0.6283,-0.3268,-0.5134,-0.6173,-0.6239,-0.2045,0.0,0.0,0.0,0.0,0.0,0.0,0.0,0.0,0.0,-0.2316,-0.59,-0.1696,0.0,0.0,0.0,0.0,0.0,0.0,0.0,0.0,0.0,0.0,0.0,0.0,0.0,0.0,0.0,0.0,0.0,0.0,0.0,0.0,0.0,-0.1705,-0.4042,-0.6393,-0.6573,-0.6278,-0.7068,-1.0035,-1.1936,-1.028,-0.9895,0.0,-0.9832,-1.1513,-1.2779,-1.2915,-1.1224,-0.9967,-0.9978,-1.023,-1.0256,-1.0156,-1.1475,-1.2449,-1.2391,-1.0901,0.0,0.0,0.0,-1.2722,-1.3158,-1.2931,0.0,0.0,0.0,-0.4451,0.0,0.0,0.0,0.0,0.0,0.0,0.0,0.0,0.0,0.0,0.0,0.0,0.0,0.0,0.0,0.0,0.0,0.0,0.0,0.0,0.0,0.0,-0.9305,-0.9883,-0.9903,-0.9903,-0.9951,-1.008,-1.0331,-1.0514,-1.0541,-1.069,-1.0571,-1.0159,-1.0483,-1.0724,-1.076,-0.9912,0.0,0.0,0.0,0.0,0.0,0.0,0.0,0.0,0.0,0.0,0.0,0.0,0.0,0.0,0.0,0.0,0.0,0.0,0.0,0.0,0.0,0.0,0.0,0.0,0.0,0.0,0.0,0.0,0.0,0.0,0.0,0.0,0.0,0.0,0.0,0.0,0.0,0.0,0.0,0.0,0.0,0.0,-0.2926,-0.455,-0.0813,-0.6038,-1.0655,-0.7677,-0.6749,-0.6317,-0.6382,-0.9613,-1.2424,-1.2983,-0.9682,-0.6629,-0.53,-0.5564,-0.5992,-0.5862,-0.9865,0.0,-1.2331,-0.8792,-0.8393,-1.234,-1.1849,-1.1918,-1.2608,-1.263,-0.9061,-0.171,-0.0461,0.0,0.0,0.0,0.0,0.0,0.0,0.0,0.0,0.0,0.0,0.0,0.0,0.0,0.0,0.0,0.0,0.0,0.0,0.0,0.0,0.0,0.0,-0.8991,-0.9477,-1.0136,-1.0148,-1.0168,-1.029,-1.0405,-1.035,-1.0491,-1.0591,-1.067,-0.9502,-0.6668,-0.9093,-1.0645,-1.075,-0.5216,-0.1465,-0.0,0.0,0.0,0.0,0.0,0.0,0.0,0.0,0.0,0.0,0.0,0.0,0.0,0.0,0.0,0.0,0.0,0.0,0.0,0.0,0.0,0.0,0.0,0.0,0.0,0.0,0.0,0.0,0.0,0.0,0.0,0.0,0.0,0.0,0.0,0.0,0.0,0.0,0.0,0.0,0.0,-0.066,-0.1002,-0.0167,-0.1354,-0.446,-1.0843,-0.8959,-0.6381,-0.6225,-0.6996,-0.8817,-1.2709,-1.2594,-0.9311,-0.2064,-0.1209,-0.1376,-0.1353,-0.7615,-1.1722,-1.1699,-0.8207,-0.656,-0.7929,-0.7882,-0.7812,-0.8064,-1.1363,-1.244,-1.0829,-0.3715,0.0,0.0,0.0,0.0,0.0,0.0,0.0,0.0,0.0,0.0,0.0,0.0,0.0,0.0,0.0,0.0,0.0,0.0,-0.0317,-0.1232,0.0,-0.6146,-0.9175,-0.8475,-0.7562,-0.7621,-0.7725,-0.8579,-1.0392,-1.0598,-0.9881,-0.8209,-0.9698,-0.9974,-0.814,-0.644,-0.5358,-0.5345,-0.1933,0.0,0.0,0.0,0.0,0.0,0.0,0.0,0.0,0.0,0.0,0.0,0.0,0.0,0.0,0.0,0.0,0.0,0.0,0.0,0.0,0.0,0.0,0.0,0.0,0.0,0.0,0.0,0.0,0.0,0.0,0.0,0.0,0.0,0.0,0.0,0.0,0.0,0.0,0.0,0.0,0.0,0.0,0.0,0.0,0.0,0.0,-0.1391,-0.5738,-0.4717,-0.3158,-0.3158,-0.3152,-0.4016,-0.6264,-0.6612,-0.5051,-0.0525,0.0,0.0,0.0,-0.3476,-0.5729,-0.5871,-0.394,-0.3086,-0.3297,-0.3297,-0.3288,-0.327,-0.5488,-0.6662,-0.6623,-0.2362,0.0,0.0,0.0,0.0,0.0,0.0,0.0,0.0,0.0,0.0,0.0,0.0,0.0,0.0,0.0,0.0,0.0,0.0,0.0,0.0,0.0,-0.1761,-0.7379,-0.7084,-0.5811,-0.5033,-0.513,-0.6421,-0.9396,-1.0315,-0.956,-0.666,-0.7734,-0.8601,-0.8675,-0.3233,0.0,0.0,0.0,0.0,0.0,0.0,0.0,0.0,0.0,0.0,0.0,0.0,0.0,0.0,0.0,0.0,0.0,0.0,0.0,0.0,0.0,0.0,0.0,0.0,0.0,0.0,0.0,0.0,0.0,0.0,0.0,0.0,0.0,0.0,0.0,0.0,0.0,0.0,0.0,0.0,0.0,0.0,0.0,0.0,0.0,0.0,0.0,0.0,0.0,0.0,0.0,0.0,0.0,0.0,0.0,0.0,0.0,0.0,0.0,0.0,0.0,0.0,0.0,0.0,0.0,0.0,0.0,0.0,0.0,0.0,0.0,0.0,0.0,0.0,0.0,0.0,0.0,0.0,0.0,0.0,0.0,0.0,0.0,0.0,0.0,0.0,0.0,0.0,0.0,0.0,0.0,0.0,0.0,0.0,0.0,0.0,0.0,-0.0262,-0.1068,-0.6176,-0.88,-0.5335,-0.5221,-0.5529,-0.6008,-0.8842,-1.0511,-1.0161,-0.4646,-0.1175,-0.1204,-0.0453,0.0,0.0,0.0,0.0,0.0,0.0,0.0,0.0,0.0,0.0,0.0,0.0,0.0,0.0,0.0,0.0,0.0,0.0,0.0,0.0,0.0,0.0,0.0,0.0,0.0,0.0,0.0,0.0,0.0,0.0,0.0,0.0,0.0,0.0,0.0,0.0,0.0,0.0,0.0,0.0,0.0,0.0,0.0,0.0,0.0,0.0,0.0,0.0,0.0,0.0,0.0,0.0,0.0,0.0,0.0,0.0,0.0,0.0,0.0,0.0,0.0,0.0,0.0,0.0,0.0,0.0,0.0,0.0,0.0,0.0,0.0,0.0,0.0,0.0,0.0,0.0,0.0,0.0,0.0,0.0,0.0,0.0,0.0,0.0,0.0,0.0,0.0,0.0,0.0,0.0,0.0,0.0,0.0,0.0,0.0,0.0,0.0,0.0,0.0,-0.2452,-0.3971,-0.2222,-0.2115,-0.2283,-0.2297,-0.3637,-0.4543,-0.4525,-0.1774,0.0,0.0,0.0,0.0,0.0,0.0,0.0,0.0,0.0,0.0,0.0,0.0,0.0,0.0,0.0,0.0,0.0,0.0,0.0,0.0,0.0,0.0,0.0,0.0,0.0,0.0,0.0,0.0,0.0,0.0,0.0,0.0,0.0,0.0,0.0,0.0,0.0,0.0,0.0,0.0,0.0,0.0,0.0,0.0,0.0,0.0,0.0,0.0,0.0,0.0,0.0,0.0,0.0,0.0,0.0,0.0,0.0,0.0,0.0,0.0,0.0,0.0,0.0,0.0,0.0,0.0,0.0,0.0,0.0,0.0,0.0,0.0,0.0,0.0,0.0,0.0,0.0,0.0,0.0,0.0,0.0,0.0,0.0,0.0,0.0,0.0,0.0,0.0,0.0,0.0,0.0,0.0,0.0,0.0,0.0,0.0,0.0,0.0,0.0,0.0,0.0,0.0,0.0,0.0,0.0,0.0,0.0,0.0,0.0,0.0,0.0,0.0,0.0,0.0,0.0,0.0,0.0,0.0,0.0,0.0,0.0,0.0,0.0,0.0,0.0,0.0,0.0,0.0,0.0,0.0,0.0,0.0,0.0,0.0,0.0,0.0,0.0,0.0,0.0,0.0,0.0,0.0,0.0,0.0,0.0,0.0,0.0,0.0,0.0,0.0,0.0,0.0,0.0,0.0,0.0,0.0,0.0,0.0,0.0,0.0,0.0,0.0,0.0,0.0,0.0,0.0,0.0,0.0,0.0,0.0,0.0,0.0,0.0,0.0,0.0,0.0,0.0,0.0,0.0,0.0,0.0,0.0,0.0,0.0,0.0,0.0,0.0,0.0,0.0,0.0,0.0,0.0,0.0,0.0,0.0,0.0,0.0,0.0,0.0,0.0,0.0,0.0,0.0,0.0,0.0,0.0,0.0,0.0,0.0,0.0,0.0,0.0,0.0,0.0,0.0,0.0,0.0,0.0,0.0,0.0,0.0,0.0,0.0,0.0,0.0,0.0,0.0,0.0,0.0,0.0,0.0,0.0,0.0,0.0,0.0,0.0,0.0,0.0,0.0,0.0,0.0,0.0,0.0,0.0,0.0,0.0,0.0,0.0,0.0,0.0,0.0,0.0,0.0,0.0,0.0,0.0,0.0,0.0,0.0,0.0,0.0,0.0,0.0,0.0,0.0,0.0,0.0,0.0,0.0,0.0,0.0,0.0,0.0,0.0,0.0,0.0,0.0,0.0,0.0,0.0,0.0,0.0,0.0,0.0,0.0,0.0,0.0,0.0,0.0,0.0,0.0,0.0,0.0,0.0,0.0,0.0,0.0,0.0,0.0,0.0,0.0,0.0,0.0,0.0,0.0,0.0,0.0,0.0,0.0,0.0,0.0,0.0,0.0,0.0,0.0,0.0,0.0,0.0,0.0,0.0,0.0,0.0,0.0,0.0,0.0,0.0,0.0,0.0,0.0,0.0,0.0,0.0,0.0,0.0,0.0,0.0,0.0,0.0,0.0,0.0,0.0,0.0,0.0,0.0,0.0,0.0,0.0,0.0,0.0,0.0,0.0,0.0,0.0,0.0,0.0,0.0,0.0,0.0,0.0,0.0,0.0,0.0,0.0,0.0,0.0,0.0,0.0,0.0,0.0,0.0,0.0,0.0,0.0,0.0,0.0,0.0,0.0,0.0,0.0,0.0,0.0,0.0,0.0,0.0,0.0,0.0,0.0,0.0,0.0,0.0,0.0,0.0,0.0,0.0,0.0,0.0,0.0,0.0,0.0,0.0,0.0,0.0,0.0,0.0,0.0,0.0,0.0,0.0,0.0,0.0,0.0,0.0,0.0,0.0,0.0,0.0,0.0,0.0,0.0,0.0,0.0,0.0,0.0,0.0,0.0,0.0,0.0,0.0,0.0,0.0,0.0,0.0,0.0,0.0,0.0,0.0,0.0,0.0,0.0,0.0,0.0,0.0,0.0,0.0,0.0,0.0,0.0,0.0,0.0,0.0,0.0,0.0,0.0,0.0,0.0,0.0,0.0,0.0,0.0,0.0,0.0,0.0,0.0,0.0,0.0,0.0,0.0,0.0,0.0,0.0,0.0,0.0,0.0,0.0,0.0,0.0,0.0,0.0,0.0,0.0,0.0,0.0,0.0,0.0,0.0,0.0,0.0,0.0,0.0,0.0,0.0,0.0,0.0,0.0,0.0,0.0,0.0,0.0,0.0,0.0,0.0,0.0,0.0,0.0,0.0,0.0,0.0,0.0,0.0,0.0,0.0,0.0,0.0,0.0,0.0,0.0,0.0,0.0,0.0,0.0,0.0,0.0,0.0,0.0,0.0,0.0,0.0,0.0,0.0,0.0,0.0,0.0,0.0,0.0,0.0,0.0,0.0,0.0,0.0,0.0,0.0,0.0,0.0,0.0,0.0,0.0,0.0,0.0,0.0,0.0,0.0,0.0,0.0,0.0,0.0,0.0,0.0,0.0,0.0,0.0,0.0,0.0,0.0,0.0,0.0,0.0,0.0,0.0,0.0,0.0,0.0,0.0,0.0,0.0,0.0,0.0,0.0,0.0,0.0,0.0,0.0,0.0,0.0,0.0,0.0,0.0,0.0,0.0,0.0,0.0,0.0,0.0,0.0,0.0,0.0,0.0,0.0,0.0,0.0,0.0,0.0,0.0,0.0,0.0,0.0,0.0,0.0,0.0,0.0,0.0,0.0,0.0,0.0,0.0,0.0,0.0,0.0,0.0,0.0,0.0,0.0,0.0,0.0,0.0,0.0,0.0,0.0,0.0,0.0,0.0,0.0,0.0,0.0,0.0,0.0,0.0,0.0,0.0,0.0,0.0,0.0,0.0,0.0,0.0,0.0,0.0,0.0,0.0,0.0,0.0,0.0,0.0,0.0,0.0,0.0,0.0,0.0,0.0,0.0,0.0,0.0,0.0,0.0,0.0,0.0,0.0,0.0,0.0,0.0,0.0,0.0,0.0,0.0,0.0,0.0,0.0,0.0,0.0,0.0,0.0,0.0,0.0,0.0,0.0,0.0,0.0,0.0,0.0,0.0,0.0,0.0,0.0,0.0,0.0,0.0,0.0,0.0,0.0,0.0,0.0,0.0,0.0,0.0,0.0,0.0,0.0,0.0,0.0,0.0,0.0,0.0,0.0,0.0,0.0,0.0,0.0,0.0,0.0,0.0,0.0,0.0,0.0,0.0,0.0,0.0,0.0,0.0,0.0,0.0,0.0,0.0,0.0,0.0,0.0,0.0,0.0,0.0,0.0,0.0,0.0,0.0,0.0,0.0,0.0,0.0,0.0,0.0,0.0,0.0,0.0,0.0,0.0,0.0,0.0,0.0,0.0,0.0,0.0,0.0,0.0,0.0,0.0,0.0,0.0,0.0,0.0,0.0,0.0,0.0,0.0,0.0,0.0,0.0,0.0,0.0,0.0,0.0,0.0,0.0,0.0,0.0,0.0,0.0,0.0,0.0,0.0,0.0,0.0,0.0,0.0,0.0,0.0,0.0,0.0,0.0,0.0,0.0,0.0,0.0,0.0,0.0,0.0,0.0,0.0,0.0,0.0,0.0,0.0,0.0,0.0,0.0,0.0,0.0,0.0,0.0,0.0,0.0,0.0,0.0,0.0,0.0,0.0,0.0,0.0,0.0,0.0,0.0,0.0,0.0,0.0,0.0,0.0,0.0,0.0,0.0,0.0,0.0,0.0,0.0,0.0,0.0,0.0,0.0,0.0,0.0,0.0,0.0,0.0,0.0,0.0,0.0,0.0,0.0,0.0,0.0,0.0,0.0,0.0,0.0,0.0,0.0,0.0,0.0,0.0,0.0,0.0,0.0,0.0,0.0,0.0,0.0,0.0,0.0,0.0,0.0,0.0,0.0,0.0,0.0,0.0,0.0,0.0,0.0,0.0,0.0,0.0,0.0,0.0,0.0,0.0,0.0,0.0,0.0,0.0,0.0,0.0,0.0,0.0,0.0,0.0,0.0,0.0,0.0,0.0,0.0,0.0,0.0,0.0,0.0,0.0,0.0,0.0,0.0,0.0,0.0,0.0,0.0,0.0,0.0,0.0,0.0,0.0,0.0,0.0,0.0,0.0,0.0,0.0,0.0,0.0,0.0,0.0,0.0,0.0,0.0,0.0,0.0,0.0,0.0,0.0,0.0,0.0,0.0,0.0,0.0,0.0,0.0,0.0,0.0,0.0,0.0,0.0,0.0,0.0,0.0,0.0,0.0,0.0,0.0,0.0,0.0,0.0,0.0,0.0,0.0,0.0,0.0,0.0,0.0,0.0,0.0,0.0,0.0,0.0,0.0,0.0,0.0,0.0,0.0,0.0,0.0,0.0,0.0,0.0,0.0,0.0,0.0,0.0,0.0,0.0,0.0,0.0,0.0,0.0,0.0,0.0,0.0,0.0,0.0,0.0,0.0,0.0,0.0,0.0,0.0,0.0,0.0,0.0,0.0,0.0,0.0,0.0,0.0,0.0,0.0,0.0,0.0,0.0,0.0,0.0,0.0,0.0,0.0,0.0,0.0,0.0,0.0,0.0,0.0,0.0,0.0,0.0,0.0,0.0,0.0,0.0,0.0,0.0,0.0,0.0,0.0,0.0,0.0,0.0,0.0,0.0,0.0,0.0,0.0,0.0,0.0,0.0,0.0,0.0,0.0,0.0,0.0,0.0,0.0,0.0,0.0,0.0,0.0,0.0,0.0,0.0,0.0,0.0,0.0,0.0,0.0,0.0,0.0,0.0,0.0,0.0,0.0,0.0,0.0,0.0,0.0,0.0,0.0,0.0,0.0,0.0,0.0,0.0,0.0,0.0,0.0,0.0,0.0,0.0,0.0,0.0,0.0,0.0,0.0,0.0,0.0,0.0,0.0,0.0,0.0,0.0,0.0,0.0,0.0,0.0,0.0,0.0,0.0,0.0,0.0,0.0,0.0,0.0,0.0,0.0,0.0,0.0,0.0,0.0,0.0,0.0,0.0,0.0,0.0,0.0,0.0,0.0,0.0,0.0,0.0,0.0,0.0,0.0,0.0,0.0,0.0,0.0,0.0,0.0,0.0,0.0,0.0,0.0,0.0,0.0,0.0,0.0,0.0,0.0,0.0,0.0,0.0,0.0,0.0,0.0,0.0,0.0,0.0,0.0,0.0,0.0,0.0,0.0,0.0,0.0,0.0,0.0,0.0,0.0,0.0,0.0,0.0,0.0,0.0,0.0,0.0,0.0,0.0,0.0,0.0,0.0,0.0,0.0,0.0,0.0,0.0,0.0,0.0,0.0,0.0,0.0,0.0,0.0,0.0,0.0,0.0,0.0,0.0,0.0,0.0,0.0,0.0,0.0,0.0,0.0,0.0,0.0,0.0,0.0,0.0,0.0,0.0,0.0,0.0,0.0,0.0,0.0,0.0,0.0,0.0,0.0,0.0,0.0,0.0,0.0,0.0,0.0,0.0,0.0,0.0,0.0,0.0,0.0,0.0,0.0,0.0,0.0,0.0,0.0,0.0,0.0,0.0,0.0,0.0,0.0,0.0,0.0,0.0,0.0,0.0,0.0,0.0,0.0,0.0,0.0,0.0,0.0,0.0,0.0,0.0,0.0,0.0,0.0,0.0,0.0,0.0,0.0,0.0,0.0,0.0,0.0,0.0,0.0,0.0,0.0,0.0,0.0,0.0,0.0,0.0,0.0,0.0,0.0,0.0,0.0,0.0,0.0,0.0,0.0,0.0,0.0,0.0,0.0,0.0,0.0,0.0,0.0,0.0,0.0,0.0,0.0,0.0,0.0,0.0,0.0,0.0,0.0,0.0,0.0,0.0,0.0,0.0,0.0,0.0,0.0,0.0,0.0,0.0,0.0,0.0,0.0,0.0,0.0,0.0,0.0,0.0,0.0,0.0,0.0,0.0,0.0,0.0,0.0,0.0,0.0,0.0,0.0,0.0,0.0,0.0,0.0,0.0,0.0,0.0,0.0,0.0,0.0,0.0,0.0,0.0,0.0,0.0,0.0,0.0,0.0,0.0,0.0,0.0,0.0,0.0,0.0,0.0,0.0,0.0,0.0,0.0,0.0,0.0,0.0,0.0,0.0,0.0,0.0,0.0,0.0,0.0,0.0,0.0,0.0,0.0,0.0,0.0,0.0,0.0,0.0,0.0,0.0,0.0,0.0,0.0,0.0,0.0,0.0,0.0,0.0,0.0,0.0,0.0,0.0,0.0,0.0,0.0,0.0,0.0,0.0,0.0,0.0,0.0,0.0,0.0,0.0,0.0,0.0,0.0,0.0,0.0,0.0,0.0,0.0,0.0,0.0,0.0,0.0,0.0,0.0,0.0,0.0,0.0,0.0,0.0,0.0,0.0,0.0,0.0,0.0,0.0,0.0,0.0,0.0,0.0,0.0,0.0,0.0,0.0,0.0,0.0,0.0,0.0,0.0,0.0,0.0,0.0,0.0,0.0,0.0,0.0,0.0,0.0,0.0,0.0,0.0,0.0,0.0,0.0,0.0,0.0,0.0,0.0,0.0,0.0,0.0,0.0,0.0,0.0,0.0,0.0,0.0,0.0,0.0,0.0,0.0,0.0,0.0,0.0,0.0,0.0,0.0,0.0,0.0,0.0,0.0,0.0,0.0,0.0,0.0,0.0,0.0,0.0,0.0,0.0,0.0,0.0,0.0,0.0,0.0,0.0,0.0,0.0,0.0,0.0,0.0,0.0,0.0,0.0,0.0,0.0,0.0,0.0,0.0,0.0,0.0,0.0,0.0,0.0,0.0,0.0,0.0,0.0,0.0,0.0,0.0,0.0,0.0,0.0,0.0,0.0,0.0,0.0,0.0,0.0,0.0,0.0,0.0,0.0,0.0,0.0,0.0,0.0,0.0,0.0,0.0,0.0,0.0,0.0,0.0,0.0,0.0,0.0,0.0,0.0,0.0,0.0,0.0,0.0,0.0,0.0,0.0,0.0,0.0,0.0,0.0,0.0,0.0,0.0,0.0,0.0,0.0,0.0,0.0,0.0,0.0,0.0,0.0,0.0,0.0,0.0,0.0,0.0,0.0,0.0,0.0,0.0,0.0,0.0,0.0,0.0,0.0,0.0,0.0,0.0,0.0,0.0,0.0,0.0,0.0,0.0,0.0,0.0,0.0,0.0,0.0,0.0,0.0,0.0,0.0,0.0,0.0,0.0,0.0,0.0,0.0,0.0,0.0,0.0,0.0,0.0,0.0,0.0,0.0,0.0,0.0,0.0,0.0,0.0,0.0,0.0,0.0,0.0,0.0,0.0,0.0,0.0,0.0,0.0,0.0,0.0,0.0,0.0,0.0,0.0,0.0,0.0,0.0,0.0,0.0,0.0,0.0,0.0,0.0,0.0,0.0,0.0,0.0,0.0,0.0,0.0,0.0,0.0,0.0,0.0,0.0,0.0,0.0,0.0,0.0,0.0,0.0,0.0,0.0,0.0,0.0,0.0,0.0,0.0,0.0,0.0,0.0,0.0,0.0,0.0,0.0,0.0,0.0,0.0,0.0,0.0,0.0,0.0,0.0,0.0,0.0,0.0,0.0,0.0,0.0,0.0,0.0,0.0,0.0,0.0,0.0,0.0,0.0,0.0,0.0,0.0,0.0,0.0,0.0,0.0,0.0,0.0,0.0,0.0,0.0,0.0,0.0,0.0,0.0,0.0,0.0,0.0,0.0,0.0,0.0,0.0,0.0,0.0,0.0,0.0,0.0,0.0,0.0,0.0,0.0,0.0,0.0,0.0,0.0,0.0,0.0,0.0,0.0,0.0,0.0,0.0,0.0,0.0,0.0,0.0,0.0,0.0,0.0,0.0,0.0,0.0,0.0,0.0,0.0,0.0,0.0,0.0,0.0,0.0,0.0,0.0,0.0,0.0,0.0,0.0,0.0,0.0,0.0,0.0,0.0,0.0,0.0,0.0,0.0,0.0,0.0,0.0,0.0,0.0,0.0,0.0,0.0,0.0,0.0,0.0,0.0,0.0,0.0,0.0,0.0,0.0,0.0,0.0,0.0,0.0,0.0,0.0,0.0,0.0,0.0,0.0,0.0,0.0,0.0,0.0,0.0,0.0,0.0,0.0,0.0,0.0,0.0,0.0,0.0,0.0,0.0,0.0,0.0,0.0,0.0,0.0,0.0,0.0,0.0,0.0,0.0,0.0,0.0,0.0,0.0,0.0,0.0,0.0,0.0,0.0,0.0,0.0,0.0,0.0,0.0,0.0,0.0,0.0,0.0,0.0,0.0,0.0,0.0,0.0,0.0,0.0,0.0,0.0,0.0,0.0,0.0,0.0,0.0,0.0,0.0,0.0,0.0,0.0,0.0,0.0,0.0,0.0,0.0,0.0,0.0,0.0,0.0,0.0,0.0,0.0,0.0,0.0,0.0,0.0,0.0,0.0,0.0,0.0,0.0,0.0,0.0,0.0,0.0,0.0,0.0,0.0,0.0,0.0,0.0,0.0,0.0,0.0,0.0,0.0,0.0,0.0,0.0,0.0,0.0,0.0,0.0,0.0,0.0,0.0,0.0,0.0,0.0,0.0,0.0,0.0,0.0,0.0,0.0,0.0,0.0,0.0,0.0,0.0,0.0,0.0,0.0,0.0,0.0,0.0,0.0,0.0,0.0,0.0,0.0,0.0,0.0,0.0,0.0,0.0,0.0,0.0,0.0,0.0,0.0,0.0,0.0,0.0,0.0,0.0,0.0,0.0,0.0,0.0,0.0,0.0,0.0,0.0,0.0,0.0,0.0,0.0,0.0,0.0,0.0,0.0,0.0,0.0,0.0,0.0,0.0,0.0,0.0,0.0,0.0,0.0,0.0,0.0,0.0,0.0,0.0,0.0,0.0,0.0,0.0,0.0,0.0,0.0,0.0,0.0,0.0,0.0,0.0,0.0,0.0,0.0,0.0,0.0,0.0,0.0,0.0,0.0,0.0,0.0,0.0,0.0,0.0,0.0,0.0,0.0,0.0,0.0,0.0,0.0,0.0,0.0,0.0,0.0,0.0,0.0,0.0,0.0,0.0,0.0,0.0,0.0,0.0,0.0,0.0,0.0,0.0,0.0,0.0,0.0,0.0,0.0,0.0,0.0,0.0,0.0,0.0,0.0,0.0,0.0,0.0,0.0,0.0,0.0,0.0,0.0,0.0,0.0,0.0,0.0,0.0,0.0,0.0,0.0,0.0,0.0,0.0,0.0,0.0,0.0,0.0,0.0,0.0,0.0,0.0,0.0,0.0,0.0,0.0,0.0,0.0,0.0,0.0,0.0,0.0,0.0,0.0,0.0,0.0,0.0,0.0,0.0,0.0,0.0,0.0,0.0,0.0,0.0,0.0,0.0,0.0,0.0,0.0,0.0,0.0,0.0,0.0,0.0,0.0,0.0,0.0,0.0,0.0,0.0,0.0,0.0,0.0,0.0,0.0,0.0,0.0,0.0,0.0,0.0,0.0,0.0,0.0,0.0,0.0,0.0,0.0,0.0,0.0,0.0,0.0,0.0,0.0,0.0,0.0,0.0,0.0,0.0,0.0,0.0,0.0,0.0,0.0,0.0,0.0,0.0,0.0,0.0,0.0,0.0,0.0,0.0,0.0,0.0,0.0,0.0,0.0,0.0,0.0,0.0,0.0,0.0,0.0,0.0,0.0,0.0,0.0,0.0,0.0,0.0,0.0,0.0,0.0,0.0,0.0,0.0,0.0,0.0,0.0,0.0,0.0,0.0,0.0,0.0,0.0,0.0,0.0,0.0,0.0,0.0,0.0,0.0,0.0,0.0,0.0,0.0,0.0,0.0,0.0,0.0,0.0,0.0,0.0,0.0,0.0,0.0,0.0,0.0,0.0,0.0,0.0,0.0,0.0,0.0,0.0,0.0,0.0,0.0,0.0,0.0,0.0,0.0,0.0,0.0,0.0,0.0,0.0,0.0,0.0,0.0,0.0,0.0,0.0,0.0,0.0,0.0,0.0,0.0,0.0,0.0,0.0,0.0,0.0,0.0,0.0,0.0,0.0,0.0,0.0,0.0,0.0,0.0,0.0,0.0,0.0,0.0,0.0,0.0,0.0,0.0,0.0,0.0,0.0,0.0,0.0,0.0,0.0,0.0,0.0,0.0,0.0,0.0,0.0,0.0,0.0,0.0,0.0,0.0,0.0,0.0,0.0,0.0,0.0,0.0,0.0,0.0,0.0,0.0,0.0,0.0,0.0,0.0,0.0,0.0,0.0,0.0,0.0,0.0,0.0,0.0,0.0,0.0,0.0,0.0,0.0,0.0,0.0,0.0,0.0,0.0,0.0,0.0,0.0,0.0,0.0,0.0,0.0,0.0,0.0,0.0,0.0,0.0,0.0,0.0,0.0,0.0,0.0,0.0,0.0,0.0,0.0,0.0,0.0,0.0,0.0,0.0,0.0,0.0,0.0,0.0,0.0,0.0,0.0,0.0,0.0,0.0,0.0,0.0,0.0,0.0,0.0,0.0,0.0,0.0,0.0,0.0,0.0,0.0,0.0,0.0,0.0,0.0,0.0,0.0,0.0,0.0,0.0,0.0,0.0,0.0,0.0,0.0,0.0,0.0,0.0,0.0,0.0,0.0,0.0,0.0,0.0,0.0,0.0,0.0,0.0,0.0,0.0,0.0,0.0,0.0,0.0,0.0,0.0,0.0,0.0,0.0,0.0,0.0,0.0,0.0,0.0,0.0,0.0,0.0,0.0,0.0,0.0,0.0,0.0,0.0,0.0,0.0,0.0,0.0,0.0,0.0,0.0,0.0,0.0,0.0,0.0,0.0,0.0,0.0,0.0,0.0,0.0,0.0,0.0,0.0,0.0,0.0,0.0,0.0,0.0,0.0,0.0,0.0,0.0,0.0,0.0,0.0,0.0,0.0,0.0,0.0,0.0,0.0,0.0,0.0,0.0,0.0,0.0,0.0,0.0,0.0,0.0,0.0,0.0,0.0,0.0,0.0,0.0,0.0,0.0,0.0,0.0,0.0,0.0,0.0,0.0,0.0,0.0,0.0,0.0,0.0,0.0,0.0,0.0,0.0,0.0,0.0,0.0,0.0,0.0,0.0,0.0,0.0,0.0,0.0,0.0,0.0,0.0,0.0,0.0,0.0,0.0,0.0,0.0,0.0,0.0,0.0,0.0,0.0,0.0,0.0,0.0,0.0,0.0,0.0,0.0,0.0,0.0,0.0,0.0,0.0,0.0,0.0,0.0,0.0,0.0,0.0,0.0,0.0,0.0,0.0,0.0,0.0,0.0,0.0,0.0,0.0,0.0,0.0,0.0,0.0,0.0,0.0,0.0,0.0,0.0,0.0,0.0,0.0,0.0,0.0,0.0,0.0,0.0,0.0,0.0,0.0,0.0,0.0,0.0,0.0,0.0,0.0,0.0,0.0,0.0,0.0,0.0,0.0,0.0,0.0,0.0,0.0,0.0,0.0,0.0,0.0,0.0,0.0,0.0,0.0,0.0,0.0,0.0,0.0,0.0,0.0,0.0,0.0,0.0,0.0,0.0,0.0,0.0,0.0,0.0,0.0,0.0,0.0,0.0,0.0,0.0,0.0,0.0,0.0,0.0,0.0,0.0,0.0,0.0,0.0,0.0,0.0,0.0,0.0,0.0,0.0,0.0,0.0,0.0,0.0,0.0,0.0,0.0,0.0,0.0,0.0,0.0,0.0,0.0,0.0,0.0,0.0,0.0,0.0,0.0,0.0,0.0,0.0,0.0,0.0,0.0,0.0,0.0,0.0,0.0,0.0,0.0,0.0,0.0,0.0,0.0,0.0,0.0,0.0,0.0,0.0,0.0,0.0,0.0,0.0,0.0,0.0,0.0,0.0,0.0,0.0,0.0,0.0,0.0,0.0,0.0,0.0,0.0,0.0,0.0,0.0,0.0,0.0,0.0,0.0,0.0,0.0,0.0,0.0,0.0,0.0,0.0,0.0,0.0,0.0,0.0,0.0,0.0,0.0,0.0,0.0,0.0,0.0,0.0,0.0,0.0,0.0,0.0,0.0,0.0,0.0,0.0,0.0,0.0,0.0,0.0,0.0,0.0,0.0,0.0,0.0,0.0,0.0,0.0,0.0,0.0,0.0,0.0,0.0,0.0,0.0,0.0,0.0,0.0,0.0,0.0,0.0,0.0,0.0,0.0,0.0,0.0,0.0,0.0,0.0,0.0,0.0,0.0,0.0,0.0,0.0,0.0,0.0,0.0,0.0,0.0,0.0,0.0,0.0,0.0,0.0,0.0,0.0,0.0,0.0,0.0,0.0,0.0,0.0,0.0,0.0,0.0,0.0,0.0,0.0,0.0,0.0,0.0,0.0,0.0,0.0,0.0,0.0,0.0,0.0,0.0,0.0,0.0,0.0,0.0,0.0,0.0,0.0,0.0,0.0,0.0,0.0,0.0,0.0,0.0,0.0,0.0,0.0,0.0,0.0,0.0,0.0,0.0,0.0,0.0,0.0,0.0,0.0,0.0,0.0,0.0,0.0,0.0,0.0,0.0,0.0,0.0,0.0,0.0,0.0,0.0,0.0,0.0,0.0,0.0,0.0,0.0,0.0,0.0,0.0,0.0,0.0,0.0,0.0,0.0,0.0,0.0,0.0,0.0,0.0,0.0,0.0,0.0,0.0,0.0,0.0,0.0,0.0,0.0,0.0,0.0,0.0,0.0,0.0,0.0,0.0,0.0,0.0,0.0,0.0,0.0,0.0,0.0,0.0,0.0,0.0,0.0,0.0,0.0,0.0,0.0,0.0,0.0,0.0,0.0,0.0,0.0,0.0,0.0,0.0,0.0,0.0,0.0,0.0,0.0,0.0,0.0,0.0,0.0,0.0,0.0,0.0,0.0,0.0,0.0,0.0,0.0,0.0,0.0,0.0,0.0,0.0,0.0,0.0,0.0,0.0,0.0,0.0,0.0,0.0,0.0,0.0,0.0,0.0,0.0,0.0,0.0,0.0,0.0,0.0,0.0,0.0,0.0,0.0,0.0,0.0,0.0,0.0,0.0,0.0,0.0,0.0,0.0,0.0,0.0,0.0,0.0,0.0,0.0,0.0,0.0,0.0,0.0,0.0,0.0,0.0,0.0,0.0,0.0,0.0,0.0,0.0,0.0,0.0,0.0,0.0,0.0,0.0,0.0,0.0,0.0,0.0,0.0,0.0,0.0,0.0,0.0,0.0,0.0,0.0,0.0,0.0,0.0,0.0,0.0,0.0,0.0,0.0,0.0,0.0,0.0,0.0,0.0,0.0,0.0,0.0,0.0,0.0,0.0,0.0,0.0,0.0,0.0,0.0,0.0,0.0,0.0,0.0,0.0,0.0,0.0,0.0,0.0,0.0,0.0,0.0,0.0,0.0,0.0,0.0,0.0,0.0,0.0,0.0,0.0,0.0,0.0,0.0,0.0,0.0,0.0,0.0,0.0,0.0,0.0,0.0,0.0,0.0,0.0,0.0,0.0,0.0,0.0,0.0,0.0,0.0,0.0,0.0,0.0,0.0,0.0,0.0,0.0,0.0,0.0,0.0,0.0,0.0,0.0,0.0,0.0,0.0,0.0,0.0,0.0,0.0,0.0,0.0,0.0,0.0,0.0,0.0,0.0,0.0,0.0,0.0,0.0,0.0,0.0,0.0,0.0,0.0,0.0,0.0,0.0,0.0,0.0,0.0,0.0,0.0,0.0,0.0,0.0,0.0,0.0,0.0,0.0,0.0,0.0,0.0,0.0,0.0,0.0,0.0,0.0,0.0,0.0,0.0,0.0,0.0,0.0,0.0,0.0,0.0,0.0,0.0,0.0,0.0,0.0,0.0,0.0,0.0,0.0,0.0,0.0,0.0,0.0,0.0,0.0,0.0,0.0,0.0,0.0,0.0,0.0,0.0,0.0,0.0,0.0,0.0,0.0,0.0,0.0,0.0,0.0,0.0,0.0,0.0,0.0,0.0,0.0,0.0,0.0,0.0,0.0,0.0,0.0,0.0,0.0,0.0,0.0,0.0,0.0,0.0,0.0,0.0,0.0,0.0,0.0,0.0,0.0,0.0,0.0,0.0,0.0,0.0,0.0,0.0,0.0,0.0,0.0,0.0,0.0,0.0,0.0,0.0,0.0,0.0,0.0,0.0,0.0,0.0,0.0,0.0,0.0,0.0,0.0,0.0,0.0,0.0,0.0,0.0,0.0,0.0,0.0,0.0,0.0,0.0,0.0,0.0,0.0,0.0,0.0,0.0,0.0,0.0,0.0,0.0,0.0,0.0,0.0,0.0,0.0,0.0,0.0,0.0,0.0,0.0,0.0,0.0,0.0,0.0,0.0,0.0,0.0,0.0,0.0,0.0,0.0,0.0,0.0,0.0,0.0,0.0,0.0,0.0,0.0,0.0,0.0,0.0,0.0,0.0,0.0,0.0,0.0,0.0,0.0,0.0,0.0,0.0,0.0,0.0,0.0,0.0,0.0,0.0,0.0,0.0,0.0,0.0,0.0,0.0,0.0,0.0,0.0,0.0,0.0,0.0,0.0,0.0,0.0,0.0,0.0,0.0,0.0,0.0,0.0,0.0,0.0,0.0,0.0,0.0,0.0,0.0,0.0,0.0,0.0,0.0,0.0,0.0,0.0,0.0,0.0,0.0,0.0,0.0,0.0,0.0,0.0,0.0,0.0,0.0,0.0,0.0,0.0,0.0,0.0,0.0,0.0,0.0,0.0,0.0,0.0,0.0,0.0,0.0,0.0,0.0,0.0,0.0,0.0,0.0,0.0,0.0,0.0,0.0,0.0,0.0,0.0,0.0,0.0,0.0,0.0,0.0,0.0,0.0,0.0,0.0,0.0,0.0,0.0,0.0,0.0,0.0,0.0,0.0,0.0,0.0,0.0,0.0,0.0,0.0,0.0,0.0,0.0,0.0,0.0,0.0,0.0,0.0,0.0,0.0,0.0,0.0,0.0,0.0,0.0,0.0,0.0,0.0,0.0,0.0,0.0,0.0,0.0,0.0,0.0,0.0,0.0,0.0,0.0,0.0,0.0,0.0,0.0,0.0,0.0,0.0,0.0,0.0,0.0,0.0,0.0,0.0,0.0,0.0,0.0,0.0,0.0,0.0,0.0,0.0,0.0,0.0,0.0,0.0,0.0,0.0,0.0,0.0,0.0,0.0,0.0,0.0,0.0,0.0,0.0,0.0,0.0,0.0,0.0,0.0,0.0,0.0,0.0,0.0,0.0,0.0,0.0,0.0,0.0,0.0,0.0,0.0,0.0,0.0,0.0,0.0,0.0,0.0,0.0,0.0,0.0,0.0,0.0,0.0,0.0,0.0,0.0,0.0,0.0,0.0,0.0,0.0,0.0,0.0,0.0,0.0,0.0,0.0,0.0,0.0,0.0,0.0,0.0,0.0,0.0,0.0,0.0,0.0,0.0,0.0,0.0,0.0,0.0,0.0,0.0,0.0,0.0,0.0,0.0,0.0,0.0,0.0,0.0,0.0,0.0,0.0,0.0,0.0,0.0,0.0,0.0,0.0,0.0,0.0,0.0,0.0,0.0,0.0,0.0,0.0,0.0,0.0,0.0,0.0,0.0,0.0,0.0,0.0,0.0,0.0,0.0,0.0,0.0,0.0,0.0,0.0,0.0,0.0,0.0,0.0,0.0,0.0,0.0,0.0,0.0,0.0,0.0,0.0,0.0,0.0,0.0,0.0,0.0,0.0,0.0,0.0,0.0,0.0,0.0,0.0,0.0,0.0,0.0,0.0,0.0,0.0,0.0,0.0,0.0,0.0,0.0,0.0,0.0,0.0,0.0,0.0,0.0,0.0,0.0,0.0,0.0,0.0,0.0,0.0,0.0,0.0,0.0,0.0,0.0,0.0,0.0,0.0,0.0,0.0,0.0,0.0,0.0,0.0,0.0,0.0,0.0,0.0,0.0,0.0,0.0,0.0,0.0,0.0,0.0,0.0,0.0,0.0,0.0,0.0,0.0,0.0,0.0,0.0,0.0,0.0,0.0,0.0,0.0,0.0,0.0,0.0,0.0,0.0,0.0,0.0,0.0,0.0,0.0,0.0,0.0,0.0,0.0,0.0,0.0,0.0,0.0,0.0,0.0,0.0,0.0,0.0,0.0,0.0,0.0,0.0,0.0,0.0,0.0,0.0,0.0,0.0,0.0,0.0,0.0,0.0,0.0,0.0,0.0,0.0,0.0,0.0,0.0,0.0,0.0,0.0,0.0,0.0,0.0,0.0,0.0,0.0757,0.0,0.0,0.0,0.0,0.0,0.0,0.0,0.0,0.0,0.0,0.0,0.0,0.0,0.0,0.0,0.0,0.0,0.0,0.0,0.0,0.0,0.0,0.0,0.0,0.0,0.0,0.0,0.0,0.0,0.0,0.0,0.0,0.0,0.0,0.0,0.0,0.0,0.0,0.0,0.0,0.0,0.0,0.0,0.0,0.0,0.0,0.0,0.0,0.0,0.0,0.0,0.0,0.0,0.0,0.0,0.0,0.0,0.0,0.0,0.0,0.0,0.0,0.0,0.0,0.0,0.0,0.0,0.0,0.0,0.0,0.0,0.0,0.0,0.0,0.0,0.0,0.0,0.0,0.0,0.0,0.0,0.0,0.0,0.0,0.0,0.0,0.0,0.0,0.0,0.0,0.0,0.0,0.0,0.0,0.0,0.0,0.0,0.0,0.0,0.0,0.0,0.0,0.0,0.0,0.0,0.0,0.0,0.0,0.0,0.0,0.0,0.2235,0.0419,0.0,0.0,0.0,0.0,0.0,0.0,0.0,0.0,0.0,0.0,0.0,0.0,0.0,0.0,0.0,0.0,0.0,0.0,0.0,0.0,0.0,0.0,0.0,0.0,0.0,0.0,0.0,0.0,0.0,0.0,0.0,0.0,0.0,0.0,0.0,0.0,0.0,0.0,0.0,0.0,0.0,0.0,0.0,0.0,0.0,0.0,0.0,0.0,0.0,0.0,0.0,0.0,0.0,0.0,0.0,0.0,0.0,0.0,0.0,0.0,0.0,0.0,0.0,0.0,0.0,0.0,0.0,0.0,0.0,0.0,0.0,0.0,0.0,0.0,0.0,0.0,0.0,0.0,0.0,0.0,0.0,0.0,0.0,0.0,0.0,0.0,0.0,0.0,0.0,0.0,0.0,0.0,0.0,0.0,0.0,0.0,0.0,0.0,0.0,0.0,0.0,0.0,0.0,0.0,0.0,0.0,0.0,0.0,0.0,0.0,0.5249,0.238,0.0,0.0,0.0,0.0,0.0,0.0,0.0,0.0,0.0,0.0,0.0,0.0,0.0,0.0,0.0,0.0,0.0,0.0,0.0,0.0,0.0,0.0,0.0,0.0,0.0,0.0,0.0,0.0,0.0,0.0,0.0,0.0,0.0,0.0,0.0,0.0,0.0,0.0,0.0,0.0,0.0,0.0,0.0,0.0,0.0,0.0,0.0,0.0,0.0,0.0,0.0,0.0,0.0,0.0,0.0,0.0,0.0,0.0,0.0,0.0,0.0,0.0,0.0,0.0,0.0,0.0,0.0,0.0,0.0,0.0,0.0,0.0,0.0,0.0,0.0,0.0,0.0,0.0,0.0,0.0,0.0,0.0,0.0,0.0,0.0,0.0,0.0,0.0,0.0,0.0,0.0,0.0,0.0,0.0,0.0,0.0,0.0,0.0,0.0,0.0,0.0,0.0,0.0,0.0,0.0,0.0,0.0,0.0,0.0,0.0,0.7094,0.5335,0.4371,0.6956,0.3655,0.0,0.0,0.0,0.0,0.0,0.0,0.0,0.0,0.0,0.0,0.0,0.0,0.0,0.0,0.0,0.0,0.0,0.0,0.0,0.0,0.0,0.0,0.0,0.0,0.0,0.0,0.0,0.0,0.0,0.0,0.0,0.0,0.0,0.0,0.0,0.0,0.0,0.0,0.0,0.0,0.0,0.0,0.0,0.0,0.0,0.0,0.0,0.0,0.0,0.0,0.0,0.0,0.0,0.0,0.0,0.0,0.0,0.0,0.0,0.0,0.0,0.0,0.0,0.0,0.0,0.0,0.0,0.0,0.0,0.0,0.0,0.0,0.0,0.0,0.0,0.0,0.0,0.0,0.0,0.0,0.0,0.0,0.0,0.0,0.0,0.0,0.0,0.0,0.0,0.0,0.0,0.0,0.0,0.0,0.0,0.0,0.0,0.0,0.0,0.0,0.0,0.0,0.0,0.0,0.0,0.0,0.0,0.797,0.7328,0.7684,1.2226,0.8354,0.3174,0.2063,0.2781,0.3333,0.2143,0.1793,0.1793,0.1793,0.0897,0.0,0.0,0.0,0.0,0.0,0.0,0.0,0.0,0.0,0.0,0.0,0.0,0.0,0.0,0.0,0.0,0.0,0.0,0.0,0.0,0.0,0.0,0.0,0.0,0.0,0.0,0.0,0.0,0.0,0.0,0.0,0.0,0.0,0.0,0.0,0.0,0.0,0.0,0.0,0.0,0.0,0.0,0.0,0.0,0.0,0.0,0.0,0.0,0.0,0.0,0.0,0.0,0.0,0.0,0.0,0.0,0.0,0.0,0.0,0.0,0.0,0.0,0.0,0.0,0.0,0.0,0.0,0.0,0.0,0.0,0.0,0.0,0.0,0.0,0.0,0.0,0.0,0.0,0.0,0.0,0.0,0.0,0.0,0.0,0.0,0.0,0.0,0.0,0.0,0.0,0.0,0.0,0.0,0.0,0.0,0.0,0.0,0.0,0.7991,0.707,0.7179,1.2121,1.3105,1.1607,0.7704,1.0344,1.2261,0.7677,0.679,0.679,0.679,0.3045,0.0,0.0,0.0,0.0,0.0,0.0,0.0,0.0,0.0,0.0,0.0,0.0,0.0,0.0,0.0,0.0,0.0,0.0,0.0,0.0,0.0,0.0,0.0,0.0,0.0,0.0,0.0,0.0,0.0,0.0,0.0,0.0,0.0,0.0,0.0,0.0,0.0,0.0,0.0,0.0,0.0,0.0,0.0,0.0,0.0,0.0,0.0,0.0,0.0,0.0,0.0,0.0,0.0,0.0,0.0,0.0,0.0,0.0,0.0,0.0,0.0,0.0,0.0,0.0,0.0,0.0,0.0,0.0,0.0,0.0,0.0,0.0,0.0,0.0,0.0,0.0,0.0,0.0,0.0,0.0,0.0,0.0,0.0,0.0,0.0,0.0,0.0,0.0,0.0,0.0,0.0,0.0,0.0,0.0,0.0,0.0,0.0,0.0,0.7907,0.8067,0.8738,1.0869,1.2473,1.2684,0.9207,1.151,1.3872,1.2005,1.1665,1.1665,1.1665,0.537,0.0,0.0,0.0,0.0,0.0,0.0,0.0,0.0,0.0,0.0,0.0,0.0,0.0,0.0,0.0,0.0,0.0,0.0,0.0,0.0,0.0,0.0,0.0,0.0,0.0,0.0,0.0,0.0,0.0,0.0,0.0,0.0,0.0,0.0,0.0,0.0,0.0,0.0,0.0,0.0,0.0,0.0,0.0,0.0,0.0,0.0,0.0,0.0,0.0,0.0,0.0,0.0,0.0,0.0,0.0,0.0,0.0,0.0,0.0,0.0,0.0,0.0,0.0,0.0,0.0,0.0,0.0,0.0,0.0,0.0,0.0,0.0,0.0,0.0,0.0,0.0,0.0,0.0,0.0,0.0,0.0,0.0,0.0,0.0,0.0,0.0,0.0,0.0,0.0,0.0,0.0,0.0,0.0,0.0,0.0,0.0,0.0,0.0,0.788,0.8452,0.9238,1.013,1.1253,1.1918,1.073,1.2241,1.3892,1.4285,1.4367,1.4367,1.4367,0.9121,0.4287,0.268,0.2326,0.233,0.233,0.2531,0.2005,0.0183,0.0,0.0,0.0,0.0,0.0,0.0,0.0,0.0,0.0,0.0,0.0,0.0,0.0,0.0,0.0,0.0,0.0,0.0,0.0,0.0,0.0,0.0,0.0,0.0,0.0,0.0,0.0,0.0,0.0,0.0,0.0,0.0,0.0,0.0,0.0,0.0,0.0,0.0,0.0,0.0,0.0,0.0,0.0,0.0,0.0,0.0,0.0,0.0,0.0,0.0,0.0,0.0,0.0,0.0,0.0,0.0,0.0,0.0,0.0,0.0,0.0,0.0,0.0,0.0,0.3028,0.5448,0.545,0.3832,0.2621,0.2622,0.2622,0.2622,0.2621,0.1009,0.0,0.0,0.0,0.0,0.0,0.0,0.0,0.0,0.0,0.0,0.0,0.0,0.0,0.0,0.0,0.0,0.0,0.0,0.0,0.9747,0.9771,1.0111,1.2507,1.2856,1.2873,1.4082,1.4265,1.4272,1.4292,1.4326,1.2722,0.804,0.7328,0.7328,0.7328,0.7577,0.6016,0.1105,0.0372,0.0188,0.0191,0.0,0.0,0.0,0.0,0.0,0.0,0.0,0.0,0.0,0.0,0.0,0.0,0.0,0.0,0.0,0.0,0.0,0.0,0.0,0.0,0.0,0.0,0.0,0.0,0.0,0.0,0.0,0.0,0.0,0.0,0.0,0.0,0.0,0.0,0.0,0.0,0.0,0.0,0.0,0.0,0.0,0.0,0.0,0.0,0.0,0.0,0.0,0.0,0.0,0.0,0.0,0.0,0.0,0.0,0.0,0.0,0.0,0.0,0.0,0.0,0.0,0.9283,1.6004,1.6031,1.1497,0.8245,0.8256,0.8259,0.8256,0.8242,0.3426,0.0403,0.0,0.0,0.0,0.0,0.0,0.0,0.0,0.0,0.0,0.0,0.0,0.0,0.0,0.0,0.0,0.7801,0.0,0.0,0.0,0.0,0.0,1.1016,1.1545,1.1998,1.3254,1.3403,1.3532,1.4183,1.4306,1.3774,1.2509,1.2361,1.239,1.239,1.2321,1.2085,1.1085,0.7817,0.5446,0.5505,0.2091,0.0,0.0,0.0,0.0,0.0,0.0,0.0,0.0,0.0,0.0,0.0,0.0,0.0,0.0,0.0,0.0,0.0,0.0,0.0,0.0,0.0,0.0,0.0,0.0,0.0,0.0,0.0,0.0,0.0,0.0,0.0,0.0,0.0,0.0,0.0,0.0,0.0,0.0,0.0,0.0,0.0,0.0,0.0,0.0,0.0,0.0,0.0,0.0,0.0,0.0,0.0,0.0,0.0,0.0,0.0,0.0,0.0,0.0,0.0,0.0,0.9256,1.6137,1.6004,1.4762,1.3936,1.3925,1.3925,1.3925,1.3919,1.2505,0.8252,0.0402,0.0,0.0,0.0,0.0,0.0,0.0,0.0,0.0,0.0,0.0,0.0,0.0,0.0,0.0,0.7909,0.8018,0.8221,0.8581,0.0,0.0,1.0683,1.1185,1.1803,1.3247,1.3532,1.3682,1.4204,1.4299,1.4299,1.4299,1.4333,1.436,1.436,1.4309,1.4437,1.4726,1.246,1.0703,1.0775,0.8156,0.551,0.3417,0.1142,0.0,0.0,0.0,0.0,0.0,0.0,0.0,0.0,0.0,0.0,0.0,0.0,0.0,0.0,0.0,0.0,0.0,0.0,0.0,0.0,0.0,0.0,0.0,0.0,0.0,0.0,0.0,0.0,0.0,0.0,0.0,0.0,0.0,0.0,0.0,0.0,0.0,0.0,0.0,0.0,0.0,0.0,0.0,0.0,0.0,0.0,0.0,0.0,0.0,0.0,0.0,0.0,0.0,0.0,0.0,0.1614,0.6034,1.2053,1.6096,1.6144,1.6151,1.6144,1.613,1.613,1.613,1.613,1.613,1.3478,0.7018,0.2408,0.0,0.0,0.0,0.0,0.0,0.0,0.0,0.0,0.0,0.0,0.0,0.0,0.0,0.8133,0.8235,0.8452,0.8804,0.873,0.0,1.086,1.1206,1.1619,1.3302,1.3756,1.3885,1.3987,1.4027,1.4048,1.4027,1.4122,1.4224,1.4292,1.4407,1.4509,1.4383,1.4808,1.5183,1.5245,1.5187,1.334,0.8735,0.3227,0.0,0.0,0.0,0.0,0.0,0.0,0.0,0.0,0.0,0.0,0.0,0.0,0.0,0.0,0.0,0.0,0.0,0.0,0.0,0.0,0.0,0.0,0.0,0.0,0.0,0.0,0.0,0.0,0.0,0.0,0.0,0.0,0.0,0.0,0.0,0.0,0.0,0.0,0.0,0.0,0.0,0.0,0.0,0.0,0.0,0.0,0.0,0.0,0.0,0.0,0.0,0.0,0.0404,0.1616,0.1818,0.5038,1.4669,1.6083,1.6083,1.6083,1.6083,1.6083,1.6083,1.6083,1.6083,1.6083,1.6083,1.6083,1.6083,0.7018,0.1807,0.1808,0.1814,0.1817,0.1817,0.0606,0.0,0.0,0.0,0.0,0.0,0.0,0.0,0.8743,0.8777,0.8913,0.8642,0.8893,0.0,0.911,0.9354,0.9863,1.0819,1.1043,1.1287,1.2006,1.2338,1.2461,1.2332,1.3024,1.3749,1.4231,1.4326,1.4387,1.4509,1.4577,1.4713,1.497,1.5045,1.4745,1.3706,0.5124,0.0,0.0,0.0,0.0,0.0,0.0,0.0,0.0,0.0,0.0,0.0,0.0,0.0,0.0,0.0,0.0,0.0,0.0,0.0,0.0,0.0,0.0,0.0,0.0,0.0,0.0,0.0,0.0,0.0,0.0,0.0,0.0,0.0,0.0,0.0,0.0,0.0,0.0,0.0,0.0,0.0,0.0,0.0,0.0,0.0,0.0,0.0,0.0,0.0,0.0,0.0,0.0,0.283,1.1373,1.3015,1.3587,1.5698,1.6083,1.6083,1.6083,1.6083,1.6083,1.6083,1.6083,1.6083,1.6083,1.6083,1.6083,1.6083,1.4054,1.2868,1.2917,1.2944,1.296,1.296,0.443,0.0,0.0,0.0,0.0,0.0,0.0,0.0,0.9008,0.8933,0.9028,0.8947,0.9049,0.0,0.0,0.9435,0.9788,1.0839,1.0873,1.0928,1.1599,1.1728,1.1748,1.1823,1.2589,1.3207,1.3288,1.3878,1.4326,1.4394,1.4468,1.457,1.4726,1.4896,1.5072,1.5242,0.892,0.3607,0.019,0.0,0.0,0.0,0.0,0.0,0.0,0.0,0.0,0.0,0.0,0.0,0.0,0.0,0.0,0.0,0.0,0.0,0.0,0.0,0.0,0.0,0.0,0.0,0.0,0.0,0.0,0.0,0.0,0.0,0.0,0.0,0.0,0.0,0.0,0.0,0.0,0.0,0.0,0.0,0.0,0.0,0.0,0.0,0.0,0.0,0.0,0.0,0.1614,0.7038,0.8072,0.9734,1.5082,1.6051,1.6171,1.6096,1.6083,1.6083,1.6083,1.6083,1.6083,1.6083,1.6083,1.6083,1.6083,1.6083,1.6083,1.6083,1.6083,1.6103,1.6137,1.6151,1.6185,1.6031,0.5434,0.0,0.0,0.0,0.0,0.0,0.0,0.0,0.9347,0.9218,0.93,0.9367,0.9306,0.9354,0.0,0.0,0.0,1.0982,1.0948,1.0846,1.1206,1.1104,1.1029,1.124,1.1979,1.2393,1.1999,1.303,1.3844,1.3905,1.4245,1.4434,1.4346,1.4563,1.4862,1.5221,1.2602,0.8622,0.3227,0.114,0.0,0.0,0.0,0.0,0.0,0.0,0.0,0.0,0.0,0.0,0.0,0.0,0.0,0.0,0.0,0.0,0.0,0.0,0.0,0.0,0.0,0.0,0.0,0.0,0.0,0.0,0.0,0.0,0.0,0.0,0.0,0.0,0.0,0.0,0.0,0.0,0.0,0.0,0.0,0.0,0.0,0.0,0.1616,0.3028,0.3028,0.3025,0.5633,1.4464,1.6185,1.6071,1.6071,1.6164,1.6083,1.6083,1.6083,1.6083,1.6083,1.6083,1.6083,1.6083,1.6083,1.6083,1.6083,1.6083,1.6083,1.6083,1.6083,1.6083,1.6083,1.6083,1.6123,1.6004,0.7637,0.3015,0.3027,0.1009,0.0,0.0,0.0,0.0,1.0229,1.0215,1.0331,0.9571,0.9849,0.9998,0.8777,0.0,0.932,0.894,0.0,0.9205,0.9259,0.0,0.0,0.9279,1.0229,1.0907,1.0724,1.1511,1.221,1.2488,1.3587,1.417,1.377,1.3763,1.419,1.5174,1.4882,1.4249,1.3517,0.4941,0.0,0.0,0.0,0.0,0.0,0.0,0.0,0.0,0.0,0.0,0.0,0.0,0.0,0.0,0.0,0.0,0.0,0.0,0.0,0.0,0.0,0.0,0.0,0.0,0.0,0.0,0.0,0.0,0.0,0.0,0.0,0.0,0.0,0.0,0.0,0.0,0.0,0.0,0.0,0.0,0.0,0.0,0.727,1.4184,1.4184,1.4325,1.4669,1.5877,1.6096,1.611,1.611,1.6096,1.6083,1.6083,1.6083,1.6083,1.6083,1.6083,1.6083,1.6083,1.6083,1.6083,1.6083,1.6083,1.6083,1.6083,1.6083,1.6083,1.6083,1.6083,1.609,1.6096,1.4869,1.4283,1.4331,0.4638,0.0,0.0,0.0,0.0,1.0283,1.0439,1.0677,0.9951,1.0073,1.0093,0.9028,0.8825,0.8859,0.8872,0.0,0.0,0.0,0.0,0.0,0.0,0.972,1.0188,0.9774,1.0792,1.1721,1.2108,1.2576,1.303,1.3458,1.3498,1.3939,1.5011,1.4694,1.4646,1.5221,1.1222,0.7406,0.4555,0.1535,0.0,0.0,0.0,0.0,0.0,0.0,0.0,0.0,0.0,0.0,0.0,0.0,0.0,0.0,0.0,0.0,0.0,0.0,0.0,0.0,0.0,0.0,0.0,0.0,0.0,0.0,0.0,0.0,0.0,0.0,0.0,0.0,0.0,0.0,0.0,0.0,0.0,0.1616,0.7877,1.2754,1.6018,1.6157,1.611,1.6083,1.6083,1.6083,1.6083,1.6083,1.6083,1.6083,1.6083,1.6083,1.6083,1.6083,1.6083,1.6083,1.6083,1.6083,1.6083,1.6083,1.6083,1.6083,1.6083,1.6083,1.6083,1.6083,1.6083,1.6083,1.6083,1.6083,1.6096,1.6117,1.1483,0.7657,0.463,0.1413,0.0,1.0677,1.0826,1.0989,1.0141,1.0046,0.9944,0.915,0.8845,0.8798,0.9042,0.8994,0.0,0.0,0.0,0.8825,0.892,0.0,0.9605,0.9049,0.9944,1.0839,1.1335,1.1545,1.2026,1.3003,1.2834,1.322,1.4563,1.3885,1.3946,1.5167,1.5242,1.3517,0.9879,0.6123,0.2872,0.0,0.0,0.0,0.0,0.0,0.0,0.0,0.0,0.0,0.0,0.0,0.0,0.0,0.0,0.0,0.0,0.0,0.0,0.0,0.0,0.0,0.0,0.0,0.0,0.0,0.0,0.0,0.0,0.0,0.0,0.0,0.0,0.0,0.0,0.0,0.0,0.2625,1.3575,1.6031,1.6004,1.6117,1.609,1.6083,1.6083,1.6083,1.6083,1.6083,1.6083,1.6083,1.6083,1.6083,1.6083,1.6083,1.6083,1.6083,1.6083,1.6083,1.6083,1.6083,1.6083,1.6083,1.6083,1.6083,1.6083,1.6083,1.6083,1.6083,1.6083,1.6083,1.6083,1.6083,1.6137,1.4119,1.0053,0.3223,0.0,1.185,1.1681,1.145,0.9992,0.9734,0.9605,0.871,0.8947,0.9273,0.9001,0.951,0.9917,0.9646,0.9585,0.9435,0.9008,0.9076,0.0,0.0,0.8669,0.9022,0.9618,1.0575,1.1484,1.225,1.1402,1.166,1.3722,1.2922,1.3173,1.5086,1.5228,1.506,1.4871,1.4741,0.9927,0.019,0.0,0.0,0.0,0.0,0.0,0.0,0.0,0.0,0.0,0.0,0.0,0.0,0.0,0.0,0.0,0.0,0.0,0.0,0.0,0.0,0.0,0.0,0.0,0.0,0.0,0.0,0.0,0.0,0.0,0.0,0.0,0.0,0.0,0.0,0.0,0.2625,1.3581,1.6024,1.6191,1.6144,1.6103,1.6083,1.6083,1.6083,1.6083,1.6083,1.6083,1.6083,1.6083,1.6083,1.6083,1.6083,1.6083,1.6083,1.6083,1.6083,1.6083,1.6083,1.6083,1.6083,1.6083,1.6083,1.6083,1.6083,1.6083,1.6083,1.6083,1.6083,1.6083,1.6083,1.6137,1.5957,1.5525,0.5021,0.0,1.2298,1.2528,1.2508,1.1009,1.0751,1.0521,0.9218,0.9164,0.9327,0.9123,0.9598,0.9985,0.9788,0.9673,0.9496,0.9137,0.9042,0.8852,0.0,0.8465,0.8669,0.8981,1.0025,1.0785,1.0948,1.1355,1.2108,1.3308,1.3261,1.3763,1.5113,1.5201,1.5208,1.5208,1.5255,1.2378,0.6822,0.2324,0.0,0.0,0.0,0.0,0.0,0.0,0.0,0.0,0.0,0.0,0.0,0.0,0.0,0.0,0.0,0.0,0.0,0.0,0.0,0.0,0.0,0.0,0.0,0.0,0.0,0.0,0.0,0.0,0.0,0.0,0.0,0.0,0.0,0.5251,1.0717,1.069,1.3518,1.6144,1.611,1.609,1.6083,1.6083,1.6083,1.6083,1.6083,1.6083,1.6083,1.6083,1.6083,1.6083,1.6083,1.6083,1.6083,1.6083,1.6083,1.6083,1.6083,1.6083,1.6083,1.6083,1.6083,1.6083,1.6083,1.6083,1.6083,1.6083,1.6083,1.6083,1.6083,1.6103,1.611,1.6096,1.2263,0.6829,1.2881,1.3105,1.3078,1.1735,1.1477,1.1199,0.9863,0.9795,0.9958,0.9754,1.0059,1.0439,1.0656,1.0229,0.9802,0.9652,0.9239,0.8764,0.0,0.8316,0.8465,0.8615,0.9449,1.0127,1.0412,1.0751,1.1613,1.3214,1.3119,1.3634,1.5106,1.5181,1.5181,1.5181,1.5228,1.409,1.1962,0.7745,0.3717,0.0,0.0,0.0,0.0,0.0,0.0,0.0,0.0,0.0,0.0,0.0,0.0,0.0,0.0,0.0,0.0,0.0,0.0,0.0,0.0,0.0,0.0,0.0,0.0,0.0,0.0,0.0,0.0,0.0,0.0,0.0,0.0,0.8082,1.5214,1.1698,1.3501,1.6123,1.609,1.6083,1.6083,1.6083,1.6083,1.6083,1.6083,1.6083,1.6083,1.6083,1.6083,1.6083,1.6083,1.6083,1.6083,1.6083,1.6083,1.6083,1.6083,1.6083,1.6083,1.6083,1.6083,1.6083,1.6083,1.6083,1.6083,1.6083,1.6083,1.6083,1.6083,1.6083,1.6083,1.6083,1.6103,1.2463]}]]